[{"header": {"dx": 0.06612293990616946, "dy": 0.0552356325346848, "nx": 98, "ny": 59, "la1": 35.046912555036876, "la2": 31.78801023549047, "lo1": -121.43107172385933, "lo2": -114.95102361305473, "refTime": "2026041307", "parameterCategory": 1, "parameterNumber": 2}, "data": [8.47, 8.41, 7.97, 7.97, 7.87, 7.87, 7.87, 7.84, 7.4, 7.4, 7.4, 6.97, 5.31, 4.02, 4.47, 4.85, 4.19, 1.84, 1.14, 2.32, 3.45, 4.74, 4.46, 4.19, 3.48, 2.68, 1.66, 0.87, 0.6, -0.0, -0.0, -1.6, -3.13, -3.58, -4.02, -3.95, -4.15, -4.6, -4.84, -4.46, -3.49, -1.58, -1.9, 1.34, 2.24, 2.54, 2.98, 3.58, 4.66, 5.36, 5.75, 5.75, 5.75, 6.0, 6.4, 6.7, 7.21, 7.28, 7.71, 7.71, 7.71, 7.89, 8.36, 7.89, 6.98, 6.28, 6.28, 6.7, 6.79, 6.79, 5.86, 6.07, 6.28, 6.79, 8.63, 10.25, 10.93, 11.42, 12.94, 11.18, 3.58, 0.0, -0.57, -0.76, -0.79, 0.0, 0.81, 1.55, 2.07, 3.16, 2.8, 2.68, 3.2, 3.84, 3.79, 3.72, 4.74, 5.46, 8.41, 7.97, 7.97, 7.97, 7.87, 7.87, 7.87, 7.87, 7.84, 7.84, 7.4, 6.07, 4.41, 4.02, 6.26, 5.81, 3.35, 1.14, 1.05, 2.4, 3.45, 4.74, 4.43, 4.11, 3.16, 1.8, 0.76, 0.95, -0.0, -0.0, -0.0, -0.0, -1.79, -2.68, -3.13, -3.04, -2.53, -2.53, -1.98, -1.9, -0.63, 0.0, 2.24, 2.54, 2.97, 3.9, 4.02, 3.95, 4.38, 4.66, 4.6, 4.19, 5.43, 6.0, 6.28, 6.28, 6.28, 7.21, 7.71, 7.71, 7.71, 7.89, 7.45, 6.51, 5.09, 4.66, 4.93, 5.75, 6.28, 7.21, 6.79, 6.07, 5.59, 7.21, 9.11, 10.75, 11.84, 11.42, 12.94, 11.18, 3.58, 0.0, -0.57, -0.76, -0.79, 0.0, 0.81, 1.55, 2.07, 3.16, 2.8, 2.68, 3.2, 3.84, 3.79, 3.72, 4.74, 5.46, 8.41, 7.97, 7.97, 7.97, 7.97, 7.97, 7.87, 7.87, 7.87, 7.84, 7.4, 6.94, 4.87, 4.47, 4.92, 4.22, 2.53, 0.81, 0.81, 2.6, 3.22, 4.43, 4.74, 5.06, 4.19, 2.53, -0.0, 0.45, 0.0, -0.0, -0.0, -0.0, -0.0, -0.0, -0.89, -1.58, -0.85, 0.0, 0.0, 0.63, 1.34, 3.2, 4.22, 3.83, 3.83, 4.8, 4.8, 4.46, 4.19, 4.19, 4.19, 4.84, 5.82, 6.16, 5.34, 5.59, 6.02, 6.79, 7.71, 7.71, 7.71, 7.21, 5.86, 4.8, 3.45, 3.74, 4.8, 6.0, 7.35, 7.6, 8.14, 7.71, 6.98, 7.45, 8.9, 10.7, 12.05, 12.87, 13.39, 10.73, 2.68, 0.0, -0.65, -0.76, -0.76, 0.0, 0.66, 0.76, 1.9, 2.6, 2.68, 2.12, 1.86, 2.53, 3.07, 4.11, 4.81, 5.09, 8.42, 8.41, 7.97, 7.97, 7.97, 7.97, 7.97, 7.87, 7.87, 7.87, 7.4, 6.94, 6.21, 5.36, 4.85, 4.22, 2.53, 0.76, 0.76, 2.53, 3.35, 4.65, 4.65, 4.74, 4.95, 5.06, 1.0, -0.95, -0.89, -1.49, -0.88, -0.0, 0.76, 2.4, 2.84, 2.68, 1.58, 1.9, 1.26, 1.79, 3.22, 3.58, 3.84, 4.22, 4.8, 4.8, 4.84, 4.11, 4.11, 4.19, 4.46, 5.34, 6.02, 5.59, 5.09, 4.66, 5.59, 6.98, 7.71, 7.71, 7.21, 5.86, 4.46, 3.16, 4.19, 4.46, 5.46, 6.35, 7.61, 9.19, 10.28, 9.74, 8.91, 8.38, 8.49, 9.81, 10.7, 12.49, 13.41, 8.94, 1.79, -0.57, -1.49, -1.26, -1.2, 0.0, 0.6, 1.2, 2.24, 2.6, 3.2, 2.23, 1.26, 1.24, 1.6, 3.79, 4.46, 4.66, 8.42, 8.42, 8.41, 7.97, 7.97, 7.97, 7.97, 7.87, 7.87, 7.87, 7.4, 6.97, 6.21, 5.81, 5.09, 4.22, 3.16, 1.24, 0.76, 1.66, 3.49, 3.49, 4.11, 3.76, 4.43, 5.06, 3.79, 2.24, 1.34, -0.85, -1.6, -0.79, -0.0, 2.53, 5.75, 5.81, 5.7, 4.92, 2.24, -0.0, 1.66, 2.98, 4.11, 4.19, 4.22, 3.83, 3.22, 2.84, 3.16, 3.84, 5.09, 5.31, 5.29, 4.66, 5.09, 4.66, 5.16, 5.86, 6.94, 7.21, 5.75, 3.49, 2.3, 3.22, 4.83, 6.24, 6.24, 6.24, 7.9, 9.48, 11.52, 12.89, 11.3, 10.01, 9.26, 8.49, 8.19, 8.63, 5.81, 5.81, 0.0, -1.2, -1.24, -1.34, -0.89, 0.0, 0.45, 1.86, 2.15, 2.86, 2.84, 2.86, 1.86, 0.57, 1.4, 3.48, 5.43, 4.93, 8.42, 8.42, 8.42, 7.97, 7.97, 7.87, 8.3, 8.3, 7.87, 7.87, 7.97, 7.51, 6.66, 5.81, 4.85, 3.83, 3.22, 2.53, 1.74, 1.6, 2.68, 3.22, 3.45, 4.19, 4.43, 4.43, 4.43, 3.48, 1.8, -0.0, -0.0, -0.0, -0.0, 2.54, 5.16, 6.28, 7.21, 6.98, 2.97, -0.85, -0.73, 2.16, 4.95, 5.77, 4.81, 3.79, 3.16, 2.6, 3.2, 4.15, 5.75, 4.85, 4.38, 4.15, 5.09, 4.8, 5.59, 5.75, 6.79, 6.79, 3.83, 1.6, 1.47, 3.27, 5.18, 6.87, 7.44, 7.18, 7.18, 9.56, 11.9, 13.51, 13.51, 12.86, 11.75, 9.83, 6.26, 2.23, 0.0, 0.45, -2.21, -1.88, -1.86, -1.79, -1.34, -0.89, -0.0, 0.71, 1.49, 1.4, 1.84, 3.79, 2.41, 1.2, 1.88, 3.45, 5.34, 4.24, 8.77, 8.86, 8.42, 8.42, 8.33, 8.33, 8.33, 8.33, 8.3, 7.87, 7.97, 7.58, 7.15, 5.81, 6.17, 3.95, 3.2, 2.6, 1.9, 0.85, 0.85, 1.74, 2.84, 3.79, 5.01, 4.11, 3.79, 2.4, 2.4, 2.68, 2.53, 1.0, 1.58, 3.47, 4.41, 5.16, 6.28, 7.74, 4.24, -1.0, -1.98, -0.0, 4.02, 5.69, 6.01, 5.69, 6.44, 4.84, 3.95, 6.14, 6.23, 4.15, 3.47, 3.9, 4.15, 4.66, 5.16, 5.31, 5.31, 4.66, 1.74, 0.79, 1.63, 3.21, 4.68, 7.54, 9.1, 8.22, 7.68, 9.3, 11.75, 12.7, 12.54, 13.07, 12.8, 11.66, 7.56, 0.89, -1.2, -1.86, -2.53, -2.53, -2.6, -2.24, -1.7, -1.26, -0.57, -0.0, -0.0, 0.7, 1.49, 2.73, 2.98, 2.2, 3.79, 4.66, 3.97, 3.07, 8.77, 8.77, 8.86, 8.86, 8.86, 8.77, 8.77, 8.33, 8.33, 8.41, 8.41, 8.03, 7.15, 6.26, 6.71, 4.41, 3.51, 3.04, 1.26, 0.6, 0.95, 0.45, 0.0, 1.6, 3.58, 4.24, 2.53, 1.27, 2.73, 3.79, 3.72, 1.6, 2.53, 4.24, 4.24, 4.41, 4.85, 6.65, 6.14, 0.95, -1.0, -0.0, 2.84, 5.01, 5.93, 6.87, 8.03, 8.05, 6.28, 7.2, 4.81, 3.84, 2.12, 2.12, 3.04, 4.02, 4.47, 4.02, 4.02, 1.7, 0.85, 0.76, 1.65, 3.11, 4.8, 7.73, 10.18, 10.29, 9.2, 10.02, 11.52, 11.52, 12.05, 12.52, 12.05, 11.15, 8.94, 2.24, 0.45, 0.45, 1.2, -2.8, -2.24, -2.12, -1.58, -1.49, -0.7, -0.61, -0.0, 0.79, 1.27, 1.27, 2.0, 3.9, 5.72, 5.86, 3.07, 2.17, 9.23, 8.79, 8.79, 8.86, 8.87, 8.87, 8.87, 8.86, 8.42, 8.42, 8.42, 8.03, 7.6, 6.26, 6.2, 4.85, 3.47, 3.04, 2.8, 2.97, 2.68, 2.24, 0.0, 0.0, 2.0, 2.8, -0.0, -0.0, 2.53, 4.8, 4.24, 2.4, 2.4, 3.82, 4.57, 4.85, 3.58, 3.9, 4.47, 2.4, -0.0, -0.0, 1.4, 3.16, 5.01, 5.82, 7.64, 8.72, 8.06, 7.41, 6.64, 5.06, 3.84, 3.2, 2.24, 2.68, 3.51, 3.58, 2.24, 0.95, 0.79, 0.79, 2.23, 3.21, 4.71, 7.52, 10.91, 12.39, 11.36, 10.73, 11.18, 11.09, 11.84, 12.18, 11.09, 9.83, 7.42, 3.13, 1.86, 2.4, 3.74, 0.89, -0.0, -1.86, -1.88, -2.15, -1.33, -0.7, -0.7, -0.0, 0.59, 1.33, 1.84, 3.49, 6.64, 6.54, 3.32, 1.58, 9.23, 9.23, 8.79, 8.79, 8.87, 8.87, 8.87, 8.87, 8.87, 8.92, 8.92, 8.47, 8.49, 8.05, 7.55, 6.2, 4.38, 3.95, 4.34, 4.34, 4.34, 4.02, 3.13, 2.68, 2.8, 2.84, 1.4, -0.0, 2.4, 4.77, 3.82, 1.34, 0.45, 0.45, 3.13, 5.26, 4.02, 2.54, 1.79, 2.4, 1.58, 0.85, 1.58, 1.9, 4.22, 5.82, 7.35, 8.63, 9.27, 8.32, 6.32, 5.76, 5.76, 5.06, 3.2, 1.79, 1.26, 0.8, 0.45, -0.0, 0.79, 1.54, 2.23, 3.21, 5.28, 7.64, 11.44, 13.42, 11.6, 10.02, 10.25, 10.6, 10.88, 10.79, 9.86, 7.73, 3.74, 1.34, 1.58, 2.53, 4.75, 7.54, 4.93, 0.6, -2.4, -2.86, -2.15, -1.33, -0.65, -0.0, 0.61, 1.61, 2.21, 2.91, 5.16, 6.28, 3.49, 2.15, 9.23, 9.23, 9.23, 9.23, 9.23, 9.32, 9.32, 8.87, 8.92, 8.92, 8.92, 8.94, 8.94, 8.49, 7.6, 5.81, 5.36, 6.23, 7.13, 6.68, 5.81, 5.36, 4.85, 4.38, 5.2, 3.82, 3.39, 2.68, 2.68, 4.47, 4.02, 0.89, 0.0, 0.0, 1.2, 4.92, 5.36, 3.13, 2.12, 3.2, 2.21, 1.58, 2.23, 4.09, 4.8, 5.34, 6.7, 7.89, 8.55, 8.0, 6.24, 5.41, 6.2, 5.38, 3.9, 2.2, -0.0, -1.58, -2.68, -1.55, 0.74, 2.21, 2.35, 3.15, 5.28, 8.53, 11.54, 13.04, 10.02, 5.46, 5.21, 7.59, 8.49, 7.85, 6.64, 3.45, 0.63, -0.0, 1.24, 2.53, 5.72, 8.23, 10.99, 7.56, 0.6, -2.4, -2.5, -1.2, -0.7, -0.0, 0.57, 1.86, 2.6, 2.24, 3.51, 4.4, 3.79, 3.22, 9.11, 9.23, 9.23, 9.23, 9.23, 9.23, 9.32, 8.87, 8.92, 8.92, 8.94, 8.94, 8.94, 8.94, 8.92, 8.92, 8.47, 8.03, 8.03, 7.58, 7.6, 7.15, 6.26, 6.71, 5.36, 4.92, 4.92, 3.58, 2.24, 2.24, 2.24, 1.79, 0.89, 0.95, 2.23, 3.74, 4.02, 3.04, 1.86, 2.53, 2.53, 2.21, 2.6, 4.4, 4.8, 4.8, 6.13, 6.32, 6.7, 5.93, 4.07, 5.3, 5.76, 3.32, -0.0, 0.77, 2.95, 0.65, -1.79, -2.98, -0.0, 3.16, 2.9, 2.9, 4.71, 7.93, 11.37, 11.83, 8.56, 1.49, 0.0, 2.18, 4.74, 4.22, 1.26, 0.0, 0.0, 0.6, 3.48, 5.72, 5.72, 8.27, 12.52, 12.79, 8.4, 0.6, -3.04, -2.4, -0.54, -0.0, 0.89, 1.79, 2.12, 2.12, 2.6, 2.86, 3.07, 3.72, 9.11, 9.11, 9.11, 9.23, 9.23, 9.23, 9.32, 8.87, 8.87, 8.92, 8.92, 8.94, 8.94, 8.92, 9.37, 9.37, 9.37, 8.92, 8.47, 8.05, 8.05, 7.6, 7.15, 6.71, 5.81, 5.36, 4.88, 4.44, 4.44, 4.43, 3.13, 2.68, 1.79, 2.12, 3.04, 2.6, 2.68, 2.54, 1.58, 2.23, 4.22, 4.6, 4.22, 2.23, 1.6, 3.48, 4.74, 6.01, 6.64, 5.46, 4.5, 5.86, 3.69, -0.73, -3.34, -0.0, 4.58, 8.94, 3.72, -0.82, -0.0, 2.34, 3.15, 2.4, 3.19, 6.28, 8.09, 8.71, 8.6, 8.62, 3.79, 0.0, 0.0, 0.8, 0.6, 0.0, 0.63, 3.16, 6.35, 7.96, 7.96, 8.65, 11.56, 13.43, 14.13, 10.28, 0.6, -3.58, -1.7, 0.45, 1.2, 1.49, 1.26, 0.89, 1.26, 1.4, 2.07, 3.72, 9.11, 9.11, 9.11, 9.23, 9.23, 9.23, 9.32, 8.87, 8.87, 8.92, 8.94, 8.94, 8.94, 9.37, 9.37, 9.77, 9.37, 9.37, 8.92, 8.49, 8.05, 8.05, 7.6, 7.6, 7.15, 6.71, 6.23, 5.33, 4.88, 4.88, 4.88, 4.47, 4.92, 2.68, 2.68, 2.24, 2.24, 1.79, 1.7, 2.12, 4.38, 4.15, 4.77, 4.8, 3.72, 4.09, 3.35, 5.37, 6.01, 5.98, 6.64, 4.19, -0.0, -3.3, -3.52, -0.71, 2.4, 8.85, 9.21, 2.23, -0.0, 1.18, 3.25, 2.33, 2.37, 4.55, 5.71, 5.02, 6.34, 10.35, 14.35, 10.24, 1.2, -0.7, 0.0, 1.34, 2.84, 5.94, 8.53, 10.24, 9.92, 10.8, 11.3, 12.01, 13.54, 15.28, 9.27, -0.0, -2.17, 0.0, 0.71, 0.0, 0.0, -0.0, 0.71, 0.54, 1.4, 3.07, 8.91, 9.11, 9.11, 9.23, 9.23, 9.23, 9.32, 9.32, 8.87, 8.92, 8.94, 8.94, 8.94, 9.37, 9.37, 9.82, 9.82, 9.37, 9.37, 8.92, 8.47, 8.47, 8.03, 8.05, 7.6, 7.6, 7.15, 6.71, 6.26, 5.81, 5.81, 5.36, 5.81, 5.36, 4.92, 4.47, 4.02, 2.24, 4.02, 2.24, 3.13, 5.36, 5.36, 5.2, 4.77, 3.72, 4.09, 5.36, 5.69, 6.87, 6.01, 2.12, -1.07, -3.17, -2.32, -0.0, 2.4, 6.01, 7.09, 4.54, 0.81, 1.14, 1.11, 1.09, 2.19, 4.72, 5.86, 5.64, 5.69, 8.91, 11.76, 16.37, 12.29, 1.86, 0.0, 3.22, 6.79, 8.46, 10.24, 11.54, 12.86, 12.14, 10.98, 9.74, 7.6, 11.95, 12.14, 4.4, 0.45, 0.0, 0.0, -0.89, -1.24, -0.0, 0.87, 0.71, 1.74, 1.74, 8.64, 8.64, 8.64, 8.79, 8.79, 8.79, 9.32, 8.87, 8.92, 8.92, 8.94, 8.94, 8.94, 9.37, 9.37, 9.82, 9.82, 9.77, 9.37, 8.92, 8.92, 8.47, 8.47, 8.47, 8.05, 8.05, 8.05, 7.6, 7.15, 6.71, 6.71, 6.71, 6.26, 6.26, 5.36, 3.13, 3.13, 3.58, 4.47, 4.92, 4.47, 2.68, 5.36, 5.2, 5.2, 4.8, 4.8, 4.65, 6.13, 7.07, 5.44, 1.05, -0.0, -0.0, -0.0, -0.0, 1.19, 3.68, 4.96, 4.46, 2.47, 1.23, -0.0, -0.0, 2.26, 4.71, 4.6, 5.45, 6.98, 8.85, 10.9, 15.2, 16.71, 10.43, 4.56, 6.09, 9.6, 11.49, 11.54, 11.9, 13.43, 13.23, 10.02, 5.36, 3.83, 3.84, 7.6, 4.73, 1.2, 0.0, 0.0, -2.15, -0.0, 1.33, 1.49, 0.57, 0.71, 0.71, 8.64, 8.64, 8.64, 8.77, 8.79, 8.79, 8.87, 8.87, 8.92, 8.92, 8.49, 8.94, 8.94, 8.94, 9.39, 9.82, 9.82, 9.77, 9.77, 9.32, 9.37, 8.92, 8.92, 8.92, 8.47, 8.47, 8.05, 8.05, 7.6, 7.6, 7.15, 7.15, 6.71, 7.15, 4.47, 4.02, 4.02, 4.47, 4.02, 4.92, 4.92, 2.24, 5.2, 2.6, 5.7, 5.4, 5.4, 5.81, 6.4, 6.8, 4.47, 1.14, -0.0, 1.1, 1.23, 1.14, 1.3, 2.48, 4.4, 5.2, 3.79, 1.19, -0.0, -0.0, 2.84, 3.07, 3.4, 4.44, 6.98, 9.08, 12.79, 14.99, 15.18, 10.53, 7.24, 8.56, 11.7, 14.11, 13.51, 12.51, 12.72, 13.04, 9.6, 2.17, 0.0, 0.0, 2.4, -0.0, 0.57, 1.49, -0.0, -1.86, -1.49, 0.61, 1.6, 0.71, 1.24, 1.24, 9.07, 8.64, 8.64, 8.77, 8.79, 8.79, 8.87, 8.87, 8.92, 8.92, 8.49, 8.94, 8.94, 8.94, 9.39, 9.37, 9.37, 9.77, 9.77, 9.77, 9.77, 9.32, 8.87, 8.86, 8.42, 8.03, 8.03, 7.58, 7.15, 7.15, 7.6, 7.6, 7.6, 7.15, 6.71, 5.81, 4.92, 5.36, 4.92, 4.47, 4.02, 2.24, 2.68, 3.13, 6.14, 6.14, 5.81, 6.36, 7.21, 6.8, 3.68, 1.1, -0.0, 1.14, 1.14, 2.4, 2.73, 3.2, 3.58, 3.39, 2.48, 2.4, 1.19, 1.6, 2.8, 1.6, 1.7, 3.68, 6.87, 9.77, 13.57, 15.61, 14.92, 10.28, 6.64, 7.64, 11.53, 14.49, 14.74, 13.1, 11.88, 12.08, 11.5, 0.0, -1.58, -0.89, -0.8, -0.71, -0.0, 1.33, 2.3, -0.0, -1.24, -0.0, 1.41, 2.3, 3.07, 3.07, 8.96, 9.11, 8.67, 8.77, 8.77, 8.79, 8.87, 8.87, 8.86, 8.92, 8.47, 8.92, 8.94, 8.94, 8.94, 8.49, 8.92, 9.32, 9.77, 9.68, 9.32, 8.87, 8.42, 7.56, 6.65, 6.26, 6.23, 5.81, 5.81, 7.15, 7.6, 8.05, 8.05, 7.6, 7.6, 7.15, 7.15, 6.71, 6.71, 5.81, 3.13, 3.13, 4.02, 6.71, 6.71, 6.17, 6.61, 6.79, 7.21, 5.93, 4.22, 2.12, 1.23, 1.14, 2.16, 3.22, 3.48, 3.72, 3.16, 2.73, 2.4, 2.4, 2.48, 0.8, 0.99, 0.79, 1.55, 3.35, 6.51, 9.77, 12.92, 15.34, 15.84, 12.56, 8.91, 7.56, 8.94, 11.96, 13.29, 12.56, 11.09, 11.44, 11.44, 7.06, 1.34, -0.63, -0.89, -1.26, -2.21, -0.0, 2.3, 3.07, -0.0, -0.0, 0.7, 3.11, 3.72, 3.72, 8.96, 8.96, 9.11, 8.77, 8.77, 8.79, 8.87, 8.87, 8.86, 8.86, 8.86, 8.92, 8.92, 8.94, 8.94, 9.39, 9.37, 9.37, 8.46, 8.01, 7.56, 7.97, 8.42, 7.56, 7.15, 6.26, 6.26, 7.6, 8.05, 8.49, 8.49, 8.49, 8.49, 8.05, 8.05, 8.05, 8.05, 8.05, 8.05, 8.05, 7.6, 7.6, 7.6, 7.6, 7.15, 7.6, 7.06, 7.21, 6.8, 5.59, 4.47, 3.2, 2.49, 2.32, 1.49, 2.15, 3.79, 2.53, 2.41, 2.4, 2.73, 2.48, 1.27, 1.41, 0.76, 0.71, 1.24, 5.2, 7.6, 9.39, 11.62, 14.55, 15.01, 13.84, 12.04, 9.75, 7.69, 8.05, 9.83, 10.16, 10.52, 11.83, 12.51, 12.86, 9.08, 1.79, -0.8, -0.63, -2.4, -1.86, -0.0, 2.07, 1.33, -0.0, 0.66, 3.11, 4.74, 4.74, 8.96, 8.96, 9.07, 8.64, 8.77, 8.79, 8.79, 8.87, 8.87, 8.87, 8.87, 8.92, 8.92, 8.92, 8.94, 9.39, 9.37, 9.82, 9.37, 8.9, 8.01, 8.42, 9.32, 9.37, 9.82, 9.83, 9.39, 9.39, 9.39, 9.37, 8.92, 8.92, 8.92, 8.92, 8.47, 8.49, 8.49, 8.49, 8.49, 8.49, 8.49, 8.49, 8.49, 8.49, 8.03, 8.43, 7.97, 7.31, 6.8, 5.59, 4.47, 3.68, 3.2, 2.49, 3.22, 2.84, 3.22, 2.84, 2.48, 1.27, 1.6, -0.0, -0.0, 1.27, 0.85, 0.71, 1.58, 5.34, 7.71, 8.36, 9.33, 12.7, 14.42, 9.72, 7.42, 7.06, 5.7, 5.86, 6.08, 5.77, 8.05, 11.54, 14.51, 14.88, 14.11, 8.14, 2.12, 0.95, 0.63, -1.7, -0.6, 0.65, 1.49, 0.61, 0.65, 2.73, 4.75, 4.75, 8.79, 8.96, 9.07, 8.64, 8.67, 9.23, 9.23, 9.32, 9.32, 9.32, 8.87, 8.92, 8.92, 8.94, 8.94, 9.39, 9.39, 9.82, 10.27, 10.27, 10.27, 10.22, 10.22, 10.22, 10.66, 10.67, 10.66, 10.27, 10.26, 9.82, 9.32, 9.32, 9.32, 9.37, 8.92, 8.92, 8.92, 8.92, 8.92, 8.92, 8.94, 8.94, 8.94, 8.47, 8.92, 8.3, 8.67, 7.4, 6.32, 5.93, 4.47, 4.47, 3.68, 3.45, 4.19, 4.74, 4.11, 4.11, 2.48, -0.0, -1.26, -0.0, -0.0, -0.0, 0.71, 1.24, 2.23, 4.19, 4.95, 4.88, 5.64, 12.01, 14.08, 3.04, 0.0, 2.11, 2.82, 2.9, 1.36, 1.26, 3.84, 9.82, 14.11, 15.72, 15.72, 13.14, 8.67, 5.43, 3.6, -0.89, -1.79, -0.0, 1.33, 1.16, 0.65, 2.15, 3.84, 3.84, 9.21, 9.21, 8.96, 9.11, 9.11, 9.11, 9.23, 9.23, 9.32, 9.32, 9.32, 9.37, 9.37, 9.39, 9.39, 9.39, 9.39, 9.82, 10.27, 10.27, 10.22, 10.22, 10.22, 10.66, 10.6, 11.04, 11.04, 10.67, 10.22, 9.77, 9.32, 9.32, 9.32, 9.32, 9.32, 8.87, 8.87, 8.87, 9.32, 9.32, 9.37, 9.37, 8.92, 8.86, 8.77, 8.64, 8.79, 7.4, 6.7, 5.69, 5.69, 4.46, 4.75, 4.47, 4.19, 4.47, 3.9, 4.56, 2.2, -1.34, -3.13, -1.74, -0.0, -0.0, 0.71, 1.24, 2.21, 2.53, 1.63, 1.6, 4.54, 9.21, 8.63, -4.09, -5.2, -0.85, 0.0, 0.0, -1.41, -1.24, 1.7, 7.28, 11.45, 13.23, 13.43, 12.89, 10.91, 9.3, 8.93, 5.46, -2.91, -2.24, -0.0, 0.65, 0.65, 2.15, 2.84, 2.84, 9.21, 9.21, 8.72, 8.96, 9.11, 9.11, 9.23, 9.24, 9.32, 9.32, 9.32, 9.37, 9.37, 9.39, 9.39, 9.39, 9.39, 9.82, 10.27, 10.22, 10.22, 10.22, 10.58, 10.58, 10.6, 11.04, 11.04, 11.04, 10.58, 9.68, 9.77, 9.32, 9.32, 9.32, 9.32, 8.87, 8.87, 8.86, 8.87, 9.23, 9.68, 9.32, 9.32, 8.77, 8.64, 8.91, 9.8, 8.34, 7.47, 6.95, 6.64, 5.44, 4.75, 4.47, 4.47, 4.22, 3.11, 4.26, 4.47, -0.0, -2.24, -2.53, -0.0, -0.0, 0.71, 1.74, 3.07, 2.32, 0.76, 0.82, 3.72, 16.41, 18.16, 3.82, -4.02, -3.72, -1.19, -1.1, -2.12, -2.07, 0.54, 4.93, 8.47, 10.28, 10.62, 10.75, 10.68, 9.27, 8.32, 9.23, -0.45, -3.45, -3.04, -0.6, -0.0, 2.15, 2.79, 2.79, 9.21, 9.21, 8.79, 8.91, 8.96, 9.11, 9.68, 9.68, 9.68, 9.77, 9.77, 9.82, 9.37, 9.39, 9.39, 9.39, 9.39, 9.83, 10.27, 10.22, 10.22, 10.14, 10.58, 10.58, 10.6, 11.04, 11.04, 11.04, 10.58, 10.14, 9.77, 9.32, 9.32, 9.32, 9.32, 8.87, 8.86, 8.86, 8.86, 9.23, 9.68, 9.68, 9.67, 9.11, 8.91, 9.21, 9.6, 9.21, 8.15, 7.55, 6.95, 6.4, 6.01, 5.37, 4.75, 3.4, 3.2, 3.11, 4.75, 4.47, 1.27, -0.99, -0.99, -0.0, 1.6, 2.53, 2.4, 2.2, 2.2, 4.8, 8.8, 12.3, 18.35, 15.59, 3.74, -1.9, -1.84, -0.61, -1.14, -1.55, 0.0, 3.38, 5.95, 7.33, 8.05, 8.46, 8.91, 7.67, 6.39, 7.55, 11.76, 2.4, -2.4, -4.02, -0.85, 1.33, 2.73, 2.73, 9.21, 9.21, 9.21, 8.79, 8.96, 9.39, 9.57, 9.68, 9.68, 9.77, 9.77, 9.82, 9.37, 9.39, 9.83, 9.39, 9.83, 9.83, 9.82, 10.27, 10.22, 10.22, 10.58, 10.6, 11.04, 11.04, 11.04, 11.04, 10.6, 10.22, 9.77, 9.77, 9.32, 9.32, 8.92, 8.86, 8.86, 8.42, 8.86, 8.79, 9.23, 9.57, 9.57, 9.39, 9.21, 9.2, 9.48, 8.73, 8.19, 7.55, 7.55, 6.64, 6.4, 5.46, 5.44, 4.46, 3.68, 3.22, 2.49, 3.6, 4.46, 3.76, 1.13, 0.98, 2.2, 2.6, 2.29, 3.33, 5.37, 7.03, 8.63, 11.88, 13.78, 18.04, 15.67, 3.07, -1.33, -1.33, -1.16, -0.7, -0.82, 0.7, 2.73, 3.07, 3.58, 6.36, 8.3, 7.64, 6.95, 6.92, 10.24, 14.28, 7.06, -1.34, -2.6, -0.0, 2.79, 2.79, 9.7, 9.7, 9.21, 9.21, 9.39, 9.39, 9.43, 9.57, 10.13, 9.68, 9.77, 9.82, 9.82, 9.83, 9.83, 9.83, 9.83, 9.83, 9.82, 10.27, 10.27, 10.22, 10.22, 10.6, 11.04, 11.04, 11.04, 11.04, 10.67, 10.22, 9.77, 9.82, 9.37, 9.37, 8.92, 8.47, 8.47, 8.47, 8.47, 8.42, 9.23, 9.11, 9.39, 9.21, 9.42, 9.35, 9.21, 8.73, 7.88, 7.55, 7.55, 7.27, 6.95, 6.35, 5.49, 3.79, 4.22, 3.45, 1.66, 2.29, 5.44, 5.69, 3.76, 1.7, 2.49, 2.6, 2.6, 4.01, 5.77, 7.67, 9.49, 11.36, 13.05, 13.99, 16.63, 14.7, 3.13, -1.33, -2.21, -1.9, -1.0, 0.0, 0.54, 1.26, 2.17, 4.73, 8.03, 8.9, 9.23, 8.6, 9.78, 13.05, 16.69, 8.14, 0.6, -0.0, 2.15, 2.15, 9.86, 9.86, 9.86, 9.27, 9.21, 9.86, 9.86, 9.86, 10.01, 9.68, 9.77, 9.82, 9.82, 9.83, 9.83, 9.83, 9.83, 10.28, 10.28, 9.82, 9.82, 10.22, 10.22, 10.67, 11.04, 11.04, 11.04, 11.04, 11.04, 10.67, 10.22, 9.77, 9.37, 9.37, 8.92, 8.92, 8.47, 8.05, 8.03, 8.42, 8.86, 9.23, 9.39, 9.21, 8.68, 8.65, 8.15, 8.15, 7.88, 7.55, 7.27, 6.97, 6.97, 6.35, 5.72, 4.71, 4.46, 3.68, 2.2, 2.6, 4.65, 5.69, 4.95, 2.35, 2.29, 2.32, 2.53, 3.6, 4.85, 7.63, 10.25, 11.84, 12.05, 11.15, 11.4, 16.19, 16.54, 4.02, -1.24, -1.86, -0.89, 2.24, 4.43, 3.97, 4.73, 6.0, 6.98, 8.65, 10.28, 10.9, 10.48, 12.29, 17.19, 15.59, 9.45, 3.49, 2.86, 2.86, 10.34, 10.34, 9.91, 9.86, 9.86, 9.86, 9.86, 9.86, 10.01, 9.57, 9.77, 9.82, 9.82, 9.83, 9.83, 9.83, 10.28, 10.28, 10.28, 9.82, 9.82, 10.22, 10.22, 11.11, 11.11, 11.11, 11.04, 11.04, 11.04, 10.67, 10.22, 9.77, 9.32, 8.92, 8.92, 8.92, 8.47, 8.49, 8.05, 8.47, 8.42, 9.23, 8.96, 8.55, 8.3, 8.08, 7.51, 6.95, 6.97, 7.59, 7.59, 7.59, 6.97, 6.35, 5.72, 5.09, 5.46, 4.21, 3.11, 3.22, 4.36, 4.95, 3.79, 2.82, 2.29, 3.11, 3.72, 2.12, 2.23, 5.59, 8.94, 11.98, 12.77, 10.73, 9.08, 10.75, 16.02, 17.91, 10.25, 0.95, -0.89, 3.82, 8.17, 9.81, 7.76, 6.85, 6.64, 8.0, 10.27, 11.62, 11.62, 12.56, 13.7, 15.59, 13.45, 9.05, 5.69, 5.69, 10.34, 10.34, 10.34, 10.34, 10.34, 10.34, 9.91, 9.86, 10.01, 9.68, 9.77, 9.82, 9.83, 9.83, 9.83, 9.83, 10.28, 10.28, 10.27, 9.82, 9.82, 10.22, 10.67, 11.11, 11.11, 11.11, 11.11, 11.11, 11.11, 10.67, 10.22, 9.77, 8.92, 8.92, 8.92, 8.92, 8.92, 8.47, 8.47, 8.47, 8.42, 8.64, 9.21, 9.2, 8.65, 8.03, 7.02, 6.34, 6.97, 7.3, 7.6, 6.98, 6.98, 6.35, 5.72, 5.34, 5.36, 5.36, 4.03, 3.64, 4.29, 4.65, 3.33, 3.22, 1.7, 2.35, 4.96, 6.87, 2.24, 3.16, 5.59, 9.06, 14.17, 14.44, 8.14, 5.64, 8.3, 13.41, 17.15, 11.98, 3.13, 4.92, 7.95, 10.47, 10.94, 9.28, 7.94, 9.28, 10.63, 11.89, 12.18, 12.87, 14.13, 15.36, 13.86, 11.2, 7.92, 7.92, 10.47, 10.47, 10.47, 10.94, 10.81, 10.34, 9.91, 10.01, 9.57, 9.68, 9.77, 9.77, 9.83, 9.83, 9.83, 10.28, 10.28, 10.27, 10.27, 10.27, 10.22, 10.22, 10.67, 11.11, 11.11, 11.11, 11.11, 11.11, 11.11, 10.67, 10.22, 9.37, 8.92, 8.94, 8.49, 8.47, 8.92, 8.92, 8.86, 8.42, 8.33, 8.48, 8.91, 9.35, 8.65, 8.03, 7.64, 6.97, 6.97, 7.28, 6.98, 6.98, 6.63, 6.35, 5.98, 5.72, 5.72, 5.34, 5.1, 4.56, 3.9, 4.01, 3.22, 2.53, 0.88, -0.0, 2.35, 6.69, 8.0, 5.7, 3.58, 5.82, 12.15, 18.73, 11.52, 2.18, 2.28, 6.32, 11.06, 13.32, 9.36, 4.47, 6.71, 9.77, 11.94, 12.83, 12.46, 11.15, 11.18, 11.15, 11.53, 12.43, 13.25, 13.88, 13.92, 11.47, 8.49, 8.49, 10.5, 10.5, 10.94, 10.94, 10.81, 10.81, 10.47, 10.01, 9.68, 9.68, 9.32, 9.37, 9.83, 9.83, 9.83, 10.28, 10.28, 10.27, 10.27, 10.27, 10.22, 10.66, 10.67, 11.11, 11.11, 11.11, 11.11, 10.67, 10.25, 9.77, 9.37, 8.92, 8.92, 8.49, 8.49, 8.49, 8.47, 8.92, 8.87, 8.77, 8.64, 8.48, 8.51, 8.55, 8.65, 8.15, 8.19, 7.9, 7.28, 6.97, 6.97, 6.64, 6.35, 6.35, 5.98, 5.98, 5.72, 5.72, 5.34, 5.1, 4.56, 3.22, 2.3, 2.3, 0.7, -0.0, 0.87, 4.43, 8.0, 9.1, 7.03, 6.94, 10.47, 17.78, 13.99, 1.2, -1.6, 1.58, 5.3, 8.24, 8.47, 5.77, 4.47, 8.92, 12.05, 13.36, 13.81, 13.4, 11.62, 10.28, 10.28, 10.7, 11.09, 11.89, 12.72, 10.38, 7.85, 7.85, 10.94, 10.94, 10.94, 11.37, 11.37, 10.94, 10.47, 10.01, 9.68, 9.32, 9.37, 9.37, 9.83, 9.83, 9.83, 10.28, 10.28, 10.71, 10.71, 10.27, 10.66, 10.67, 10.67, 11.11, 11.11, 10.67, 10.67, 11.11, 11.11, 9.81, 9.37, 8.94, 8.94, 8.94, 8.49, 8.49, 8.49, 8.92, 8.87, 9.23, 8.91, 8.3, 8.15, 8.0, 8.44, 7.86, 8.19, 7.3, 7.59, 6.97, 6.35, 6.35, 6.08, 5.72, 5.72, 5.72, 6.0, 6.0, 5.72, 5.09, 5.1, 2.3, 4.19, 3.07, 2.3, 1.8, 1.74, 3.6, 6.23, 9.21, 8.63, 8.14, 9.83, 15.65, 17.72, 3.51, -1.41, 0.0, 2.2, 4.11, 4.87, 4.43, 4.87, 7.15, 10.73, 12.06, 12.91, 12.46, 10.26, 8.05, 7.11, 7.12, 7.57, 8.24, 8.91, 9.49, 7.2, 7.2, 10.94, 10.94, 11.4, 11.4, 11.37, 10.94, 10.04, 9.68, 9.68, 9.32, 9.37, 9.37, 9.83, 9.83, 9.83, 10.28, 10.28, 10.71, 10.71, 10.71, 10.66, 10.67, 10.67, 11.11, 10.67, 10.67, 10.67, 11.11, 11.61, 11.16, 10.27, 9.39, 8.94, 8.94, 8.94, 8.94, 8.94, 8.92, 9.32, 9.11, 8.96, 8.51, 8.15, 7.72, 7.51, 7.55, 7.59, 7.59, 7.3, 6.98, 6.35, 6.35, 5.72, 5.72, 6.0, 6.0, 5.72, 5.72, 5.72, 5.09, 5.44, 4.47, 4.47, 4.74, 3.48, 3.16, 3.58, 4.15, 5.81, 8.17, 9.33, 10.47, 10.73, 12.94, 14.73, 8.4, 0.89, 0.0, 0.72, 1.55, 1.9, 2.68, 4.92, 7.15, 8.05, 9.83, 10.71, 10.21, 7.12, 3.07, 2.4, 3.2, 4.24, 6.07, 6.79, 8.25, 6.8, 6.8, 11.24, 11.24, 11.4, 11.4, 10.94, 10.5, 10.14, 9.68, 9.77, 9.32, 9.37, 9.82, 9.83, 9.83, 9.83, 10.28, 10.28, 10.27, 10.71, 10.71, 10.71, 10.67, 10.67, 11.11, 10.67, 10.67, 11.11, 11.16, 11.61, 11.61, 10.73, 9.83, 9.39, 8.94, 8.94, 8.94, 9.37, 9.77, 9.68, 9.39, 9.21, 8.91, 8.15, 7.72, 7.21, 6.95, 6.95, 6.97, 6.97, 6.69, 6.35, 6.35, 6.35, 6.08, 6.0, 6.0, 5.72, 5.72, 5.72, 5.36, 5.38, 5.44, 5.37, 5.59, 5.01, 4.46, 3.6, 4.85, 6.21, 8.01, 9.28, 10.96, 11.4, 12.86, 12.74, 8.14, 2.86, 1.79, 1.4, 0.0, 0.0, 2.23, 4.87, 6.67, 7.6, 8.05, 7.5, 3.53, 2.4, 0.99, 0.57, 0.99, 3.2, 4.73, 5.64, 6.36, 6.8, 6.8, 11.28, 11.28, 11.4, 11.4, 10.94, 10.6, 10.14, 9.77, 9.77, 9.37, 9.82, 9.82, 9.83, 9.83, 9.83, 10.28, 10.28, 10.27, 10.27, 10.71, 10.71, 10.71, 11.16, 11.16, 10.71, 11.16, 11.16, 11.61, 11.61, 11.62, 10.73, 10.28, 9.83, 9.37, 9.39, 9.39, 9.82, 9.68, 9.57, 9.21, 9.01, 8.68, 8.43, 7.35, 6.57, 6.32, 6.64, 6.95, 6.67, 6.64, 6.35, 6.35, 6.08, 6.35, 5.72, 5.72, 5.72, 6.01, 5.72, 5.71, 5.71, 5.69, 5.37, 3.84, 4.22, 4.8, 3.47, 4.47, 5.81, 7.15, 8.94, 8.82, 11.62, 13.23, 11.45, 3.32, 1.88, 7.03, 7.56, 3.07, 1.24, 1.58, 3.74, 5.32, 4.02, 2.68, 1.7, 0.95, 0.6, 0.57, 0.57, 0.99, 2.54, 3.95, 5.32, 6.22, 6.79, 6.79, 11.28, 11.28, 11.4, 11.4, 11.04, 10.6, 10.22, 9.77, 9.82, 9.82, 9.82, 10.28, 10.28, 10.28, 10.28, 10.28, 10.28, 10.27, 10.71, 10.71, 10.71, 10.71, 10.71, 10.71, 10.71, 11.16, 11.16, 11.61, 11.62, 11.62, 11.18, 10.28, 9.83, 9.83, 9.83, 9.82, 10.22, 10.04, 9.86, 9.21, 9.01, 8.68, 8.27, 7.44, 6.23, 6.28, 6.32, 6.64, 6.34, 6.35, 6.35, 6.35, 6.35, 5.72, 6.01, 6.01, 5.72, 5.72, 5.71, 5.71, 6.28, 6.28, 6.32, 2.86, 3.22, 5.81, 4.41, 4.92, 5.36, 6.26, 6.7, 7.06, 10.04, 13.51, 11.83, 2.24, 0.0, 7.56, 13.67, 8.47, 1.79, 0.8, 2.24, 3.13, 2.68, 2.12, 1.2, 0.95, 0.95, 1.26, 0.95, 1.6, 2.24, 4.02, 5.36, 6.26, 7.15, 7.12, 11.4, 11.4, 11.4, 11.4, 11.04, 10.67, 10.22, 9.82, 9.82, 9.82, 10.27, 10.28, 10.28, 10.28, 10.28, 10.28, 10.28, 10.27, 10.71, 10.71, 10.71, 10.71, 10.71, 10.71, 11.16, 11.16, 11.61, 11.62, 11.62, 11.62, 11.18, 10.73, 10.28, 10.28, 10.27, 10.22, 10.14, 9.91, 9.7, 9.42, 8.8, 8.68, 8.43, 7.69, 6.79, 6.23, 5.69, 5.71, 6.04, 6.34, 6.34, 6.34, 6.34, 6.01, 5.72, 5.72, 5.72, 5.71, 5.71, 6.28, 6.28, 6.57, 7.07, 3.45, 4.4, 5.75, 6.23, 5.34, 5.34, 5.43, 4.74, 5.72, 9.08, 13.43, 16.24, 8.0, 0.0, 3.11, 7.48, 3.32, -0.0, -0.0, 2.4, 3.32, 4.66, 3.74, 2.4, 2.4, 2.6, 2.17, 1.79, 1.79, 2.24, 4.41, 5.77, 7.12, 7.92, 7.15, 11.4, 11.4, 11.4, 11.04, 11.04, 10.67, 10.22, 10.27, 10.27, 10.27, 10.27, 10.28, 10.28, 10.28, 10.28, 10.71, 10.71, 10.71, 10.73, 10.73, 10.73, 10.71, 10.71, 10.71, 11.16, 11.18, 11.62, 12.07, 11.62, 11.18, 10.73, 10.28, 10.28, 10.27, 10.67, 10.6, 10.47, 10.18, 9.92, 9.51, 9.2, 9.07, 8.43, 8.0, 7.68, 6.57, 5.69, 5.69, 5.71, 6.32, 6.32, 6.01, 6.01, 6.01, 6.01, 5.71, 5.71, 6.01, 6.01, 6.28, 6.57, 6.79, 6.41, 6.32, 6.13, 5.75, 5.2, 4.84, 5.46, 4.74, 4.16, 4.83, 8.15, 11.12, 15.53, 13.51, 3.2, -1.52, -0.61, -1.24, -0.59, 0.61, 3.48, 6.0, 6.64, 6.79, 5.86, 4.73, 3.53, 2.68, 2.17, 1.86, 2.4, 5.59, 6.98, 7.21, 7.56, 7.92, 11.37, 11.37, 10.94, 11.04, 11.04, 10.67, 10.67, 10.67, 10.71, 10.71, 10.27, 10.28, 10.28, 10.28, 10.73, 10.73, 10.73, 10.73, 10.73, 10.73, 10.73, 10.73, 10.73, 11.18, 11.18, 11.62, 12.07, 12.07, 11.62, 11.18, 10.73, 10.28, 10.28, 10.71, 10.67, 10.94, 10.81, 10.42, 10.21, 9.71, 9.6, 8.96, 8.82, 8.0, 8.0, 7.68, 6.28, 5.69, 5.69, 6.01, 6.01, 5.71, 5.71, 5.71, 5.71, 5.71, 6.01, 5.69, 5.69, 6.57, 6.57, 6.57, 7.28, 6.32, 6.4, 6.4, 4.8, 5.75, 4.84, 4.29, 4.03, 4.83, 7.21, 9.48, 11.35, 15.28, 10.9, 0.57, -4.8, -4.66, -0.0, 2.0, 4.73, 7.56, 8.06, 6.85, 4.73, 4.24, 4.87, 3.58, 2.4, 1.9, 3.22, 6.7, 7.71, 7.47, 6.94, 6.94, 10.94, 10.94, 11.04, 11.04, 11.04, 11.11, 10.67, 10.67, 10.71, 10.71, 10.73, 10.28, 10.28, 10.73, 10.73, 10.73, 10.73, 10.73, 10.73, 10.73, 10.73, 10.73, 10.73, 11.18, 11.18, 11.62, 12.07, 12.07, 11.62, 11.16, 10.71, 10.27, 10.28, 10.73, 10.67, 10.94, 10.81, 10.42, 10.21, 9.88, 9.88, 9.35, 8.55, 8.0, 8.0, 7.8, 7.17, 6.28, 5.69, 5.69, 5.69, 5.69, 5.69, 5.69, 5.69, 5.69, 5.69, 5.98, 6.23, 6.23, 6.51, 7.07, 6.7, 6.7, 6.32, 6.32, 5.93, 5.75, 3.79, 4.01, 4.16, 5.77, 7.76, 8.67, 10.41, 12.82, 16.37, 14.95, 2.4, -2.24, -1.34, 2.15, 5.72, 8.91, 8.24, 6.21, 3.53, 4.41, 5.77, 4.92, 2.5, 3.16, 4.12, 6.4, 6.94, 6.0, 6.0, 6.0, 11.04, 11.04, 11.04, 11.04, 11.04, 11.11, 10.67, 10.67, 10.71, 10.71, 10.71, 10.73, 10.73, 10.73, 10.73, 10.73, 10.73, 10.73, 10.73, 10.73, 10.73, 10.73, 10.73, 11.18, 11.62, 11.62, 12.07, 12.06, 11.61, 11.16, 10.71, 10.27, 10.28, 10.73, 11.11, 11.04, 10.81, 10.6, 9.71, 9.88, 9.88, 9.48, 9.1, 8.55, 7.73, 7.51, 7.44, 6.87, 6.28, 5.69, 5.69, 5.69, 5.69, 5.69, 5.69, 5.69, 5.98, 5.98, 6.23, 6.51, 6.51, 7.07, 7.07, 7.76, 6.7, 5.93, 5.93, 5.59, 3.72, 4.01, 4.81, 5.82, 6.79, 8.67, 10.23, 11.83, 15.43, 20.23, 17.59, 6.4, 0.0, 0.0, 3.13, 7.45, 7.92, 5.32, 3.58, 4.02, 6.66, 6.26, 3.74, 3.84, 4.46, 6.0, 5.43, 3.83, 3.83, 3.83, 11.04, 11.04, 11.04, 11.04, 11.04, 11.11, 11.11, 11.11, 10.71, 10.71, 10.71, 10.71, 10.71, 10.71, 10.73, 10.73, 10.73, 10.73, 10.73, 10.73, 10.73, 10.73, 11.18, 11.18, 11.62, 12.06, 12.06, 12.06, 11.61, 11.18, 10.73, 10.73, 10.73, 11.16, 11.57, 11.49, 10.81, 10.18, 9.51, 9.2, 9.35, 9.1, 8.93, 8.65, 8.08, 8.08, 7.51, 7.21, 6.62, 6.28, 5.69, 5.69, 5.69, 5.69, 5.69, 5.98, 5.98, 5.65, 6.51, 6.51, 6.7, 7.07, 7.07, 6.79, 7.21, 5.69, 5.37, 4.01, 3.72, 4.01, 4.74, 5.06, 6.39, 8.67, 9.84, 11.2, 13.75, 16.55, 17.9, 15.72, 7.03, 0.0, 0.0, 2.68, 6.55, 6.58, 4.92, 3.58, 5.81, 5.81, 6.61, 3.16, 3.84, 4.22, 2.23, 1.26, 1.26, 1.26, 11.04, 11.04, 11.04, 11.04, 11.04, 11.11, 11.11, 11.11, 10.71, 10.71, 10.71, 10.71, 10.71, 10.71, 10.71, 10.71, 10.71, 10.71, 10.73, 10.73, 10.73, 10.73, 11.18, 11.16, 11.61, 12.06, 12.06, 11.61, 11.16, 11.18, 10.73, 10.71, 11.16, 11.57, 11.94, 11.4, 11.24, 10.6, 9.92, 9.2, 8.96, 8.82, 8.55, 8.55, 8.08, 8.08, 7.73, 7.44, 6.87, 6.28, 6.01, 5.69, 5.69, 5.69, 5.98, 5.98, 5.93, 5.93, 6.51, 6.51, 7.07, 7.07, 6.79, 6.87, 6.62, 6.87, 5.37, 4.01, 4.74, 4.01, 4.74, 4.95, 6.39, 8.3, 9.6, 10.55, 12.15, 14.54, 16.06, 16.69, 14.74, 3.51, -1.33, 0.0, 4.87, 7.48, 5.77, 4.02, 3.32, 6.14, 3.39, 1.26, 1.26, 0.95, 0.0, 0.0, 0.0, 0.0, 11.04, 11.04, 11.05, 11.05, 11.12, 11.11, 11.11, 11.11, 11.16, 10.71, 10.71, 10.71, 10.71, 10.71, 10.71, 10.71, 10.71, 10.71, 10.71, 10.71, 10.71, 11.16, 11.16, 11.61, 11.61, 12.06, 11.57, 11.61, 11.16, 10.73, 10.73, 11.16, 11.61, 12.02, 11.95, 11.84, 11.28, 10.66, 9.92, 9.6, 8.96, 8.82, 8.43, 8.0, 8.37, 8.37, 8.08, 7.8, 7.44, 6.62, 6.28, 6.01, 5.69, 5.98, 5.65, 5.93, 5.93, 5.93, 6.51, 6.51, 7.07, 6.79, 6.87, 6.32, 6.32, 6.32, 4.75, 4.47, 4.75, 4.74, 3.9, 4.95, 6.79, 8.05, 9.2, 10.0, 11.2, 13.43, 14.7, 15.09, 16.3, 11.83, 0.63, -1.88, 1.86, 5.36, 3.13, 2.17, 1.86, 0.0, -0.45, -0.89, -0.89, -0.45, -0.45, 0.45, 0.45, 0.45, 11.05, 11.05, 11.05, 11.12, 11.12, 11.11, 11.11, 11.16, 11.16, 11.16, 10.71, 10.71, 10.71, 10.71, 10.71, 10.71, 10.71, 10.71, 10.71, 10.71, 10.71, 11.16, 11.16, 11.61, 11.61, 11.61, 11.61, 11.16, 10.71, 10.73, 11.18, 11.18, 11.61, 12.02, 11.95, 11.86, 11.71, 10.91, 10.21, 9.48, 9.35, 8.96, 8.43, 8.27, 8.0, 8.0, 8.0, 8.0, 7.44, 6.87, 6.28, 6.01, 5.98, 5.98, 5.93, 5.93, 5.93, 6.15, 6.51, 7.07, 6.79, 6.52, 6.62, 6.32, 6.01, 6.32, 5.69, 4.75, 5.06, 4.46, 4.84, 5.15, 6.44, 7.67, 8.67, 9.65, 10.28, 11.88, 13.87, 14.7, 15.67, 16.1, 8.3, 0.0, 0.0, 0.65, 0.0, -0.45, -0.0, -0.4, -1.2, -1.79, -1.79, -1.79, -1.34, -0.89, -0.89, -0.89, 11.49, 11.49, 11.12, 11.12, 11.11, 11.11, 11.11, 11.16, 11.16, 10.71, 10.71, 10.71, 10.71, 10.71, 10.71, 10.71, 10.71, 10.71, 10.71, 10.71, 10.67, 11.11, 11.11, 11.16, 11.61, 11.61, 11.61, 11.16, 11.18, 11.18, 11.18, 11.62, 12.06, 12.46, 12.39, 11.71, 11.56, 10.91, 10.21, 9.88, 9.48, 9.1, 8.55, 8.27, 8.27, 8.27, 8.0, 8.0, 7.44, 6.87, 6.28, 6.23, 6.23, 6.51, 6.15, 6.15, 6.15, 6.51, 6.51, 6.57, 6.57, 6.28, 6.28, 6.01, 5.71, 5.3, 4.83, 4.95, 4.74, 4.84, 4.84, 4.19, 5.82, 6.39, 7.68, 9.04, 10.28, 10.9, 11.9, 13.89, 15.33, 16.72, 13.14, 2.41, -1.58, -2.86, -3.45, -2.41, -0.0, 0.53, 0.6, -0.63, -1.34, -1.34, -0.89, -0.95, -0.95, -0.95, 11.49, 11.05, 11.12, 11.11, 11.11, 11.11, 11.11, 10.71, 10.71, 10.71, 10.71, 10.71, 10.71, 10.71, 10.71, 10.71, 10.71, 10.71, 10.71, 10.67, 10.67, 11.11, 11.11, 11.16, 11.16, 11.16, 11.62, 11.62, 11.62, 11.62, 11.62, 12.07, 12.06, 12.39, 12.3, 11.71, 11.39, 10.71, 10.62, 9.88, 9.88, 9.1, 8.93, 8.55, 8.27, 7.9, 7.9, 7.72, 7.44, 6.87, 6.57, 6.23, 6.51, 6.51, 6.15, 6.15, 6.51, 6.51, 6.23, 6.57, 6.57, 6.28, 6.28, 5.71, 5.71, 5.59, 4.83, 5.59, 5.69, 5.43, 4.74, 4.46, 3.83, 5.82, 6.73, 8.3, 9.66, 10.29, 11.28, 13.1, 14.7, 15.72, 14.13, 6.53, -1.2, -5.44, -5.09, -3.72, -0.7, 1.88, 3.43, 1.9, 1.26, -0.0, -0.0, -0.63, -0.63, -0.63, 11.05, 11.04, 11.11, 11.11, 11.11, 11.11, 10.67, 10.71, 10.71, 10.71, 10.71, 10.71, 10.71, 10.71, 10.71, 10.71, 10.71, 10.71, 10.67, 10.67, 10.67, 10.67, 10.67, 10.71, 11.16, 11.16, 11.62, 11.62, 12.07, 12.07, 12.06, 12.06, 12.46, 12.3, 12.18, 11.56, 11.33, 10.71, 10.62, 9.88, 9.48, 9.35, 9.1, 8.55, 8.0, 7.9, 7.72, 7.72, 7.35, 7.15, 6.79, 6.7, 6.51, 6.51, 6.51, 6.51, 6.51, 6.23, 6.23, 6.57, 6.57, 6.57, 6.28, 5.71, 5.72, 5.1, 4.56, 5.3, 5.89, 5.49, 5.59, 5.69, 4.43, 2.68, 4.74, 7.02, 9.0, 10.29, 11.5, 12.79, 13.43, 14.7, 15.03, 8.67, -5.64, -6.0, -4.73, -4.11, -2.88, 0.69, 4.61, 5.69, 3.79, 3.16, 2.5, 2.17, 2.17, 2.17, 11.04, 11.04, 11.04, 11.11, 11.11, 10.67, 10.67, 10.67, 10.71, 10.71, 10.71, 10.71, 10.71, 10.71, 10.71, 10.71, 10.67, 10.67, 10.67, 10.67, 10.67, 10.67, 10.66, 10.71, 11.16, 11.61, 11.61, 12.07, 12.07, 12.07, 12.06, 12.02, 12.39, 12.18, 12.04, 11.81, 11.12, 10.5, 10.4, 10.4, 9.88, 9.48, 9.35, 8.55, 8.37, 8.0, 7.44, 7.44, 7.35, 7.15, 6.79, 7.07, 6.7, 6.7, 6.51, 6.23, 6.23, 6.23, 6.23, 6.23, 6.57, 6.57, 6.01, 5.71, 5.71, 5.38, 5.3, 4.83, 4.71, 5.49, 5.89, 5.49, 5.21, 3.11, 2.98, 6.01, 8.68, 10.53, 11.44, 11.75, 12.39, 14.39, 16.14, -0.95, -5.94, -5.31, -3.48, -3.43, -2.6, -0.0, 4.37, 6.95, 5.69, 5.06, 6.08, 6.64, 6.64, 6.64, 11.04, 11.04, 11.04, 11.04, 10.67, 10.67, 10.67, 10.67, 10.71, 10.71, 10.71, 10.71, 10.71, 10.71, 10.71, 10.66, 10.67, 10.67, 10.67, 10.67, 10.67, 10.67, 10.66, 10.71, 11.16, 11.61, 12.06, 12.07, 12.07, 12.07, 12.06, 12.02, 11.95, 12.18, 11.87, 11.62, 10.91, 10.91, 10.4, 10.4, 10.0, 9.88, 9.35, 8.55, 8.37, 8.0, 7.8, 7.44, 7.44, 7.35, 7.35, 6.79, 7.07, 6.79, 6.57, 6.23, 6.23, 6.51, 6.51, 6.51, 6.51, 6.23, 5.69, 5.69, 5.69, 5.38, 5.38, 5.1, 4.83, 5.24, 4.56, 4.83, 5.49, 5.59, 4.95, 4.95, 7.68, 10.66, 11.5, 11.44, 11.44, 13.35, 14.17, 0.45, -7.01, -5.72, -2.04, -1.35, -1.94, -0.0, 3.97, 6.65, 5.72, 5.77, 7.07, 8.24, 8.24, 8.24, 11.04, 11.04, 11.04, 10.6, 10.67, 10.67, 10.66, 10.66, 10.66, 10.71, 10.71, 10.71, 10.71, 10.67, 10.66, 10.67, 10.67, 10.67, 10.67, 10.67, 10.67, 10.67, 10.66, 11.11, 11.57, 12.06, 12.06, 12.06, 12.07, 12.07, 11.61, 11.57, 11.95, 11.74, 11.99, 11.21, 11.12, 10.4, 10.4, 10.4, 10.4, 9.88, 9.35, 8.55, 8.37, 7.73, 7.8, 7.44, 7.44, 7.72, 7.35, 7.35, 6.79, 6.79, 6.79, 6.51, 6.51, 6.51, 6.51, 6.51, 6.51, 6.23, 5.98, 5.98, 5.98, 5.08, 5.38, 5.08, 4.95, 4.65, 4.16, 4.16, 4.65, 5.37, 4.95, 5.82, 7.06, 9.67, 11.5, 11.88, 11.83, 12.47, 17.59, 5.86, -3.58, -7.07, -1.58, 0.71, -0.0, -0.0, 1.84, 5.36, 5.09, 5.43, 6.94, 8.4, 8.4, 8.4, 11.04, 11.04, 10.6, 10.6, 10.6, 10.66, 10.66, 10.66, 10.66, 10.66, 10.66, 10.66, 10.67, 10.67, 10.66, 10.67, 10.67, 10.67, 10.67, 10.67, 10.67, 10.67, 10.66, 11.11, 11.57, 12.06, 12.5, 12.5, 12.07, 12.07, 11.62, 11.57, 11.49, 11.84, 11.56, 10.91, 10.62, 10.21, 10.0, 10.4, 10.4, 9.88, 9.1, 8.55, 8.37, 8.0, 8.0, 8.0, 7.72, 7.72, 7.35, 7.35, 7.07, 7.07, 7.07, 6.7, 6.95, 6.95, 6.95, 6.7, 6.51, 6.15, 5.93, 5.93, 5.65, 5.37, 5.37, 5.37, 4.75, 4.29, 4.01, 4.74, 4.74, 5.06, 5.77, 5.82, 6.7, 8.63, 10.8, 11.83, 11.88, 13.87, 17.66, 18.45, 2.91, -5.43, -2.82, 2.83, 3.32, 0.71, 1.26, 2.5, 4.66, 4.66, 5.64, 7.71, 7.71, 7.71, 11.04, 11.04, 10.6, 10.6, 10.58, 10.66, 10.66, 10.66, 10.66, 10.66, 10.66, 10.66, 10.67, 10.67, 10.66, 10.67, 10.67, 10.6, 10.6, 10.6, 10.6, 10.6, 10.6, 11.57, 12.02, 12.5, 12.5, 12.52, 12.07, 12.07, 11.62, 11.61, 11.57, 11.49, 11.28, 10.66, 10.42, 9.71, 9.71, 10.21, 10.0, 9.88, 9.35, 8.55, 8.0, 8.0, 8.0, 7.9, 7.9, 7.35, 7.61, 7.23, 7.23, 7.07, 6.95, 6.95, 6.95, 6.95, 6.95, 6.95, 6.7, 6.51, 6.15, 5.93, 5.93, 5.35, 5.35, 5.06, 4.45, 4.11, 4.01, 4.74, 4.74, 5.06, 6.44, 7.03, 6.8, 7.89, 9.6, 10.48, 11.53, 12.89, 16.06, 21.92, 15.24, -0.0, -3.55, 2.12, 7.27, 3.49, 1.2, 1.86, 4.73, 5.31, 5.31, 7.12, 7.12, 7.12, 10.6, 10.6, 10.6, 10.58, 10.58, 10.58, 10.66, 10.66, 10.66, 10.66, 10.66, 10.66, 10.66, 10.66, 10.67, 10.67, 10.6, 11.04, 11.04, 11.04, 11.04, 10.6, 11.04, 11.57, 12.02, 12.5, 12.96, 12.96, 12.52, 12.07, 12.07, 11.61, 11.57, 11.49, 10.94, 10.34, 10.12, 9.51, 9.92, 9.71, 10.11, 9.48, 9.35, 8.82, 8.27, 7.9, 7.9, 8.15, 7.76, 7.61, 7.61, 7.48, 7.48, 7.48, 7.48, 7.08, 7.08, 7.08, 7.48, 6.95, 6.95, 6.95, 6.15, 6.15, 5.93, 5.59, 5.35, 5.01, 4.43, 4.11, 4.43, 4.74, 4.29, 5.06, 6.44, 7.44, 7.44, 7.42, 8.05, 9.92, 10.9, 12.86, 15.35, 19.39, 18.86, 5.37, -1.41, 1.45, 7.9, 8.82, 4.52, 2.6, 4.02, 5.36, 4.92, 6.26, 6.26, 6.26, 10.6, 10.6, 10.58, 10.58, 10.58, 10.58, 10.14, 10.66, 10.66, 10.66, 10.66, 10.66, 10.66, 10.66, 10.6, 10.6, 11.04, 11.04, 11.04, 11.04, 11.04, 11.04, 11.04, 11.04, 12.06, 12.5, 12.96, 12.96, 12.96, 12.52, 12.06, 12.06, 11.57, 11.05, 10.94, 10.34, 9.7, 9.7, 9.51, 9.92, 9.71, 9.71, 9.2, 8.68, 8.68, 8.15, 8.15, 8.0, 8.0, 7.87, 7.48, 7.48, 7.48, 7.48, 7.71, 7.71, 7.71, 7.31, 7.71, 7.08, 6.95, 6.95, 6.79, 6.41, 6.15, 5.59, 5.29, 5.29, 4.94, 4.71, 4.71, 4.74, 4.74, 4.74, 5.77, 7.07, 7.67, 7.44, 7.06, 9.04, 10.29, 12.47, 14.83, 17.9, 18.15, 8.65, -0.0, 1.3, 7.9, 11.09, 9.7, 6.11, 4.47, 3.97, 4.41, 5.59, 5.59, 5.59, 10.47, 10.47, 10.58, 10.58, 10.58, 10.58, 10.14, 10.14, 10.58, 10.58, 10.58, 10.58, 10.58, 10.6, 10.6, 11.04, 11.04, 11.04, 11.04, 11.04, 11.04, 10.94, 11.04, 11.04, 12.06, 12.5, 12.96, 13.41, 12.96, 12.95, 12.5, 12.02, 11.57, 11.04, 10.5, 10.34, 9.7, 9.21, 9.42, 9.51, 9.51, 9.42, 9.2, 8.68, 8.51, 8.4, 8.0, 8.0, 8.0, 7.6, 7.71, 7.71, 7.71, 7.71, 7.81, 7.81, 7.71, 7.71, 7.31, 7.31, 7.31, 6.95, 6.95, 6.41, 6.41, 5.86, 5.86, 5.29, 4.94, 4.94, 4.71, 5.15, 4.74, 5.59, 5.82, 6.82, 7.07, 6.39, 6.39, 7.41, 9.9, 12.39, 14.3, 16.44, 17.66, 11.54, 3.11, 2.29, 7.59, 12.05, 12.01, 9.6, 5.78, 3.32, 3.45, 4.66, 4.66, 4.66, 10.47, 10.47, 10.47, 10.58, 10.58, 10.58, 10.58, 10.58, 10.58, 10.58, 10.58, 10.58, 10.58, 10.6, 10.6, 11.04, 11.04, 11.04, 11.04, 11.04, 11.49, 11.49, 11.04, 11.04, 11.61, 12.07, 12.96, 12.96, 13.4, 12.95, 12.47, 12.02, 11.49, 10.94, 10.81, 10.34, 9.7, 9.21, 9.21, 9.42, 9.42, 9.01, 9.01, 8.51, 8.72, 8.22, 8.22, 8.22, 7.81, 7.81, 7.81, 7.81, 7.81, 7.81, 8.0, 8.0, 8.0, 8.0, 7.71, 7.31, 7.31, 7.2, 6.95, 6.56, 6.41, 6.03, 5.86, 5.75, 5.58, 5.21, 4.94, 5.29, 5.29, 5.93, 5.46, 6.44, 6.44, 6.39, 6.39, 7.44, 8.63, 11.2, 12.79, 14.95, 16.1, 13.49, 7.08, 4.46, 7.18, 11.2, 13.51, 12.51, 9.34, 4.47, 2.84, 3.48, 3.48, 3.48, 10.47, 10.47, 10.47, 10.58, 10.58, 10.58, 10.58, 10.58, 10.58, 10.58, 10.58, 10.58, 10.58, 10.6, 10.6, 11.04, 11.04, 11.04, 11.04, 11.04, 11.49, 11.49, 11.04, 11.04, 11.61, 12.07, 12.96, 12.96, 13.4, 12.95, 12.47, 12.02, 11.49, 10.94, 10.81, 10.34, 9.7, 9.21, 9.21, 9.42, 9.42, 9.01, 9.01, 8.51, 8.72, 8.22, 8.22, 8.22, 7.81, 7.81, 7.81, 7.81, 7.81, 7.81, 8.0, 8.0, 8.0, 8.0, 7.71, 7.31, 7.31, 7.2, 6.95, 6.56, 6.41, 6.03, 5.86, 5.75, 5.58, 5.21, 4.94, 5.29, 5.29, 5.93, 5.46, 6.44, 6.44, 6.39, 6.39, 7.44, 8.63, 10.23, 11.44, 12.86, 14.13, 13.46, 10.12, 7.08, 7.52, 10.18, 13.14, 14.13, 13.14, 8.8, 2.6, 2.3, 2.3, 2.3]}, {"header": {"dx": 0.06612293990616946, "dy": 0.0552356325346848, "nx": 98, "ny": 59, "la1": 35.046912555036876, "la2": 31.78801023549047, "lo1": -121.43107172385933, "lo2": -114.95102361305473, "refTime": "2026041307", "parameterCategory": 1, "parameterNumber": 3}, "data": [-0.56, -1.2, -1.14, -1.14, -1.69, -1.69, -1.69, -1.81, -1.71, -1.71, -1.71, -1.61, -0.76, 0.0, 0.0, 0.81, 3.35, 5.51, 5.7, 5.81, 5.75, 4.74, 3.72, 3.35, 3.48, 3.58, 4.15, 3.47, 1.2, 0.89, 0.45, 0.8, -0.0, -0.0, -0.0, -0.79, -1.66, -2.76, -3.22, -2.98, -2.79, -1.58, -1.9, 0.0, 0.0, -0.85, -1.98, -2.68, -1.55, 0.0, 0.82, 2.47, 2.47, 3.0, 3.2, 2.51, 2.4, 2.18, 2.31, 2.31, 2.31, 1.58, 1.52, 1.58, 1.55, 2.35, 2.35, 2.51, 2.26, 2.26, 2.2, 1.52, 2.35, 2.26, 2.35, 3.16, 2.34, 2.14, 0.76, 0.0, 0.0, 0.0, -1.7, -3.04, -3.95, -4.92, -4.85, -4.66, -3.45, -3.16, -1.4, 0.0, 1.6, 3.07, 3.79, 4.46, 4.74, 3.9, -1.2, -1.14, -1.14, -1.14, -1.69, -1.69, -1.69, -1.69, -1.81, -1.81, -1.71, -1.52, -0.73, 0.0, 0.0, 2.32, 4.19, 5.7, 5.26, 4.8, 5.75, 4.74, 4.43, 4.11, 3.16, 3.6, 3.04, 0.95, 0.45, 0.89, 1.79, 1.79, -0.0, -0.0, -0.0, -0.76, -2.53, -2.53, -2.98, -1.9, -0.63, 0.0, 0.0, 0.85, 0.99, 0.98, 0.0, 0.79, 0.88, 1.55, 2.76, 3.35, 3.11, 3.0, 2.35, 2.35, 2.35, 2.4, 2.31, 2.31, 2.31, 1.58, 1.49, 1.63, 1.7, 1.55, 2.11, 2.47, 2.35, 2.4, 2.26, 1.52, 1.6, 2.4, 2.28, 3.07, 2.37, 2.14, 0.76, 0.0, 0.0, 0.0, -1.7, -3.04, -3.95, -4.92, -4.85, -4.66, -3.45, -3.16, -1.4, 0.0, 1.6, 3.07, 3.79, 4.46, 4.74, 3.9, -1.2, -1.14, -1.14, -1.14, -1.14, -1.14, -1.69, -1.69, -1.69, -1.81, -1.71, -1.73, -0.7, 0.0, 0.0, 2.53, 4.22, 4.85, 4.85, 5.2, 4.84, 4.43, 4.74, 5.06, 5.24, 4.22, 1.34, 0.0, 0.0, 2.24, 4.02, 4.47, 3.13, 1.34, -0.0, -1.58, -2.54, -2.68, -1.79, -0.63, 0.0, 1.6, 2.53, 2.3, 2.3, 2.4, 2.4, 2.98, 3.35, 3.35, 3.35, 3.22, 3.33, 2.64, 2.29, 1.6, 1.72, 2.26, 2.31, 2.31, 2.31, 2.4, 2.2, 2.4, 2.07, 1.49, 2.4, 3.0, 3.27, 3.8, 3.7, 2.31, 1.55, 1.49, 0.81, 0.76, 0.75, 1.51, 0.7, 0.0, 0.0, -0.89, -2.6, -3.04, -3.04, -3.58, -3.97, -3.04, -1.9, -0.65, 0.0, 0.71, 1.24, 2.53, 3.84, 4.11, 4.01, 3.64, -1.12, -1.2, -1.14, -1.14, -1.14, -1.14, -1.14, -1.69, -1.69, -1.69, -1.71, -1.73, -0.78, 0.0, 0.81, 2.53, 4.22, 3.04, 3.04, 4.22, 4.19, 3.49, 3.49, 4.74, 5.77, 5.06, 2.0, -0.95, -0.0, 2.23, 4.38, 5.36, 5.31, 4.8, 2.84, 0.0, -1.58, -1.9, -1.26, 0.0, 2.41, 2.68, 3.07, 2.53, 2.4, 2.4, 3.22, 4.11, 4.11, 3.35, 2.98, 2.29, 1.72, 1.6, 1.7, 1.55, 1.6, 1.55, 2.31, 2.31, 2.4, 2.2, 2.98, 3.16, 3.35, 3.72, 3.9, 4.94, 6.23, 6.36, 6.33, 4.5, 2.97, 1.4, 0.0, -0.75, -0.76, -0.78, 0.0, 0.0, 0.0, -1.7, -2.23, -1.26, -0.6, -1.34, -1.2, -0.6, 0.0, 0.65, 1.6, 1.49, 1.26, 1.86, 3.2, 3.79, 2.98, 2.66, -1.12, -1.12, -1.2, -1.14, -1.14, -1.14, -1.14, -1.69, -1.69, -1.69, -1.71, -1.61, -0.78, 0.0, 1.7, 2.53, 3.16, 1.86, 3.04, 4.15, 4.65, 4.65, 4.11, 5.01, 4.43, 5.06, 3.79, 0.0, 0.0, 2.54, 3.2, 3.95, 4.02, 4.22, 3.45, 2.32, 1.14, 0.0, 0.0, 2.24, 4.15, 4.46, 4.11, 3.35, 2.53, 2.3, 2.41, 2.84, 3.16, 3.07, 1.7, 0.76, 0.88, 1.55, 1.7, 1.55, 1.47, 2.2, 3.09, 2.4, 2.47, 2.79, 3.83, 4.84, 6.44, 7.02, 7.02, 7.02, 7.9, 9.48, 9.22, 8.06, 6.36, 3.85, 1.54, 0.0, -2.23, -2.35, 0.0, 0.0, -1.34, -2.4, -1.86, -0.0, -0.0, 0.0, 0.0, 1.24, 1.61, 2.15, 2.84, 2.15, 1.24, 1.7, 2.8, 3.48, 3.11, 2.11, -1.12, -1.12, -1.12, -1.14, -1.14, -1.69, -1.78, -1.78, -1.69, -1.69, -1.14, -1.16, -0.74, 0.0, 0.81, 2.3, 2.41, 2.53, 2.6, 3.2, 3.58, 4.84, 5.75, 5.24, 4.43, 4.43, 4.43, 3.48, 3.6, 3.58, 2.68, 2.24, 1.79, 0.85, 1.47, 2.35, 2.4, 1.55, 0.99, 2.54, 4.41, 5.4, 5.77, 4.95, 4.01, 3.79, 3.16, 1.74, 1.6, 1.66, 0.82, 0.81, 0.88, 1.66, 1.7, 2.4, 1.6, 2.47, 2.26, 2.26, 2.3, 3.2, 5.16, 7.35, 8.88, 9.92, 8.93, 7.97, 7.97, 8.76, 8.72, 8.74, 8.74, 7.23, 5.48, 3.02, 0.0, -1.49, -0.45, 0.0, -2.21, -2.5, -1.24, -0.0, -0.0, -0.0, 0.89, 2.12, 2.23, 2.8, 3.07, 3.79, 3.22, 2.4, 2.5, 2.07, 2.29, 1.41, -1.75, -1.18, -1.12, -1.12, -1.67, -1.67, -1.67, -1.67, -1.78, -1.69, -1.14, -0.54, 0.0, 0.0, 1.03, 0.79, 1.6, 1.74, 1.9, 2.54, 2.54, 2.6, 2.84, 3.79, 3.76, 4.11, 3.79, 4.8, 4.8, 3.58, 2.53, 2.0, 1.58, 0.87, 0.73, 1.47, 2.35, 2.21, 1.41, 2.0, 2.98, 4.02, 5.36, 5.69, 6.01, 5.69, 4.83, 3.22, 0.79, 1.23, 2.49, 1.66, 0.87, 0.98, 1.66, 1.55, 1.47, 0.76, 0.76, 1.55, 2.6, 3.95, 6.51, 8.82, 10.15, 10.55, 9.85, 8.22, 6.14, 6.2, 5.48, 5.55, 5.9, 4.61, 4.0, 3.11, 0.76, 0.0, -0.6, -1.24, -2.53, -2.53, -0.65, -0.0, 0.57, 1.26, 1.7, 2.24, 3.58, 3.51, 3.74, 4.09, 4.46, 4.4, 3.79, 1.55, 0.66, 0.61, -1.75, -1.75, -1.18, -1.18, -1.18, -1.75, -1.75, -1.67, -1.67, -1.2, -1.2, -0.57, 0.0, 0.0, 0.0, 0.73, 0.7, 0.76, 1.26, 1.2, 0.95, 0.0, -0.45, -0.8, 0.0, 1.41, 2.53, 3.82, 4.09, 3.79, 2.48, 3.2, 2.53, 1.41, 1.41, 0.73, 0.81, 0.83, 1.23, 0.95, 2.0, 2.68, 2.84, 3.76, 4.75, 5.72, 6.42, 4.83, 2.35, 3.6, 4.01, 3.07, 0.71, 0.71, 0.76, 0.0, 0.0, 0.0, 0.0, 0.57, 2.54, 5.31, 7.42, 9.33, 9.6, 9.27, 9.4, 7.12, 4.6, 2.31, 1.54, 1.54, 0.75, 0.0, -0.75, -0.7, 0.0, 0.0, 0.0, 0.0, -0.6, -1.4, -0.0, 0.71, 1.58, 2.23, 3.51, 3.07, 3.58, 3.95, 3.82, 3.82, 4.0, 5.46, 4.29, 2.2, 0.61, 0.54, -1.73, -1.65, -1.65, -1.18, -1.11, -1.11, -1.11, -1.18, -1.12, -1.12, -1.12, -0.57, 0.0, 0.0, 0.89, 0.81, 0.87, 0.76, 1.4, 0.99, 0.0, 0.0, -2.24, -2.68, -1.0, 1.4, 2.68, 2.68, 2.53, 2.4, 1.41, 1.2, 1.2, 1.27, 1.83, 0.81, 0.0, -0.98, 0.0, 1.2, 1.34, 2.24, 2.8, 3.16, 3.76, 4.16, 5.46, 5.45, 5.64, 5.76, 6.64, 5.06, 3.07, 1.6, 0.0, 0.0, -0.7, 0.0, 0.0, 0.95, 3.95, 7.11, 8.19, 8.82, 8.63, 8.27, 7.79, 6.2, 2.44, 0.0, 0.0, -1.39, -2.37, -2.87, -3.47, -3.02, -1.65, 0.0, 1.24, 1.2, 1.49, 0.0, 0.45, 1.24, 2.5, 2.86, 3.32, 3.51, 3.51, 3.58, 3.53, 3.32, 3.07, 2.79, 3.69, 2.9, 1.33, 1.58, -1.73, -1.73, -1.65, -1.65, -1.11, -1.11, -1.11, -1.11, -1.11, -0.59, -0.59, -0.56, 0.0, 0.0, 0.84, 0.89, 0.88, 0.79, 1.08, 1.08, 1.08, 0.0, 0.0, 0.0, 1.4, 2.84, 2.8, 1.79, 1.2, 1.19, 1.27, 0.0, 0.0, 0.0, 0.0, 1.05, 0.0, -0.85, 0.0, 1.2, 1.58, 2.54, 1.58, 1.9, 2.53, 3.33, 3.27, 4.71, 5.41, 6.05, 6.32, 7.41, 7.41, 5.06, 1.6, 0.0, -1.26, -1.6, 0.0, 2.24, 7.11, 9.26, 10.04, 8.82, 8.3, 6.88, 6.1, 4.95, 0.73, -2.31, -3.16, -3.53, -4.08, -4.32, -4.23, -3.51, -1.49, 0.0, 1.58, 2.53, 4.07, 4.8, 2.11, 1.2, 1.2, 2.15, 2.86, 3.32, 2.6, 2.68, 3.07, 2.68, 2.21, 1.16, 1.47, 2.35, 2.79, 2.86, -1.73, -1.73, -1.73, -1.73, -1.73, -1.16, -1.16, -1.11, -0.56, -0.56, -0.56, 0.0, 0.0, 0.0, 0.0, 0.0, 0.0, 0.57, 0.59, 0.56, 0.0, 0.0, 0.81, 0.88, 1.3, 1.27, 1.13, 0.0, 0.0, 0.0, 0.0, 0.0, -0.45, -0.89, -0.6, 0.0, 0.0, 0.0, 0.71, 1.6, 2.21, 1.58, 1.49, 2.73, 2.4, 2.29, 2.51, 3.15, 3.88, 4.0, 7.02, 9.27, 9.3, 7.69, 5.46, 4.4, 1.34, -1.58, -0.0, 4.66, 8.91, 9.58, 8.63, 7.89, 8.3, 8.53, 8.46, 6.9, 2.31, -3.9, -6.7, -5.52, -4.96, -4.28, -3.69, -2.07, -0.63, 0.45, 1.86, 2.53, 4.29, 6.17, 6.87, 2.75, 1.2, 1.2, 1.88, 2.4, 3.51, 2.24, 1.7, 1.24, 0.65, 0.0, 0.7, 2.2, 3.79, 4.84, -2.28, -1.73, -1.73, -1.73, -1.73, -1.73, -1.16, -1.11, -0.56, -0.56, 0.0, 0.0, 0.0, 0.0, 0.56, 0.59, 0.56, 0.54, 0.57, 0.54, 0.0, 0.0, 0.0, 0.0, 0.0, 0.0, 0.0, 0.0, 0.0, 0.0, 0.0, 0.0, 0.0, -0.95, -1.49, -1.49, 0.0, 0.76, 1.24, 2.53, 2.53, 2.21, 1.74, 2.2, 2.4, 2.4, 3.68, 4.22, 4.46, 4.75, 8.95, 9.84, 9.05, 8.3, 9.83, 11.6, 10.32, 2.6, -0.0, 4.46, 9.83, 10.25, 7.98, 6.54, 8.63, 11.9, 13.8, 13.41, 10.9, 2.23, -4.92, -7.28, -4.74, -2.53, -1.26, -0.89, 0.0, 1.2, 3.48, 4.29, 5.0, 7.52, 8.61, 6.4, 4.2, 1.2, 0.76, 1.2, 2.17, 1.34, 0.0, 0.0, -0.71, -0.71, 0.65, 2.15, 3.84, 4.46, -2.28, -2.28, -2.28, -1.73, -1.73, -1.73, -1.16, -1.11, -1.11, -0.56, -0.56, 0.0, 0.0, 0.56, 0.59, 0.55, 0.59, 0.56, 0.56, 0.0, 0.0, 0.0, 0.0, 0.0, 0.0, 0.0, -0.61, -0.55, -0.55, -0.63, 0.0, 0.0, 0.0, -0.71, -0.76, -0.65, 0.0, 0.85, 1.58, 1.49, 2.53, 2.76, 2.53, 1.49, 0.8, 3.48, 4.74, 6.01, 6.64, 7.64, 8.24, 7.33, 6.64, 8.01, 11.13, 12.52, 12.6, 11.17, 4.46, 5.75, 10.73, 10.93, 7.89, 7.21, 11.18, 13.35, 15.44, 16.63, 17.19, 15.67, 6.07, -1.34, -4.47, -1.6, -1.2, -0.45, 0.63, 3.16, 5.64, 6.51, 6.51, 7.08, 6.8, 7.11, 9.42, 6.33, 1.2, -0.0, 0.57, 0.0, -0.6, -2.23, -1.26, 0.0, 1.26, 2.8, 3.45, 4.46, -2.28, -2.28, -2.28, -1.73, -1.73, -1.73, -1.16, -1.11, -1.11, -0.56, 0.0, 0.0, 0.0, 0.59, 0.55, 1.15, 0.55, 0.59, 0.56, 0.0, 0.0, 0.0, 0.0, 0.0, 0.0, 0.0, -0.57, -0.59, -0.61, -0.61, -0.61, 0.0, 0.0, 0.0, 0.0, 0.0, 0.0, 0.0, 0.57, 0.71, 0.88, 1.66, 1.19, 2.4, 2.48, 2.73, 4.19, 5.37, 7.21, 8.37, 6.64, 5.24, 6.71, 8.79, 8.22, 7.12, 7.21, 8.85, 10.36, 8.19, 10.73, 10.66, 9.75, 10.47, 11.84, 12.14, 12.13, 12.92, 14.79, 15.13, 15.95, 8.66, -0.6, -3.51, -1.79, 0.0, 2.84, 6.68, 8.53, 8.66, 7.63, 5.4, 4.24, 3.53, 7.84, 8.4, 5.41, 0.45, -0.54, -1.34, -2.12, -1.79, 0.0, 1.34, 2.12, 2.17, 2.8, 3.84, -2.97, -2.28, -2.28, -1.73, -1.73, -1.73, -1.16, -1.16, -1.11, -0.56, 0.0, 0.0, 0.0, 0.59, 0.55, 0.58, 0.58, 0.55, 0.59, 0.59, 0.56, 0.56, 0.57, 0.0, 0.0, 0.0, 0.0, 0.0, 0.0, 0.0, 0.0, 0.0, 0.0, 0.0, 0.0, 0.0, 0.0, 0.0, 0.0, 0.0, 0.0, 0.0, 0.0, 1.3, 1.19, 2.48, 2.73, 4.02, 5.69, 5.72, 6.01, 6.36, 7.52, 7.4, 5.81, 4.92, 4.8, 6.01, 9.21, 10.21, 8.9, 7.97, 8.87, 9.77, 10.96, 10.62, 10.55, 10.16, 9.1, 10.02, 10.98, 11.69, 5.38, -1.24, 0.0, 4.84, 8.3, 9.23, 8.66, 8.46, 7.23, 4.55, 2.06, 1.39, 0.0, 3.73, 4.55, 2.2, 0.0, -1.79, -1.79, -0.0, 1.86, 3.58, 3.47, 2.12, 2.6, 2.6, -2.3, -2.3, -2.3, -1.65, -1.65, -1.65, -1.16, -1.11, -0.56, -0.59, 0.0, 0.0, 0.0, 0.59, 0.55, 0.58, 0.58, 1.15, 0.55, 0.56, 0.59, 0.56, 0.56, 0.56, 0.0, 0.0, 0.0, 0.0, 0.0, 0.0, 0.0, 0.0, 0.0, 0.0, 0.0, 0.0, 0.0, 0.0, 0.0, 0.0, 0.0, 0.0, 0.0, 1.3, 1.3, 2.4, 2.4, 3.49, 3.68, 4.71, 6.52, 8.43, 8.49, 7.15, 4.92, 4.47, 4.77, 6.13, 7.44, 6.7, 5.75, 6.14, 6.71, 7.15, 6.79, 7.07, 7.67, 8.72, 8.15, 8.85, 7.01, 6.52, 6.37, 4.01, 6.08, 9.9, 11.2, 9.95, 8.46, 7.93, 7.11, 5.45, 2.31, 0.0, -2.3, -3.07, 0.0, 1.35, 0.6, 0.0, 0.0, 2.86, 4.02, 3.32, 3.74, 1.7, 2.12, 2.12, -2.3, -2.3, -2.3, -1.75, -1.65, -1.65, -1.11, -1.11, -0.56, -0.59, 0.0, 0.0, 0.0, 0.0, 0.0, 0.58, 0.58, 1.15, 1.15, 1.1, 0.59, 0.56, 0.56, 0.56, 0.56, 0.56, 0.0, 0.0, 0.0, 0.0, 0.0, 0.0, 0.0, 0.0, 0.0, 0.0, 0.0, 0.0, 0.0, 0.0, 0.0, 0.0, 1.3, 0.65, 1.14, 2.16, 2.16, 2.32, 3.2, 3.4, 5.59, 7.97, 7.6, 6.61, 6.14, 5.7, 5.2, 3.72, 2.2, 2.6, 3.79, 4.77, 4.92, 4.02, 2.84, 3.84, 6.8, 7.76, 8.15, 7.95, 6.4, 4.5, 3.79, 6.77, 9.66, 10.9, 11.7, 10.98, 9.54, 7.82, 7.48, 6.9, 4.8, 0.54, -2.24, -2.68, -1.2, 1.79, 1.7, 2.23, 1.79, 1.24, 2.23, 3.07, 3.2, 2.12, 1.86, 1.86, -2.42, -2.3, -2.3, -1.75, -1.65, -1.65, -1.11, -1.11, -0.59, -0.59, 0.0, 0.0, 0.0, 0.0, 0.0, 0.59, 0.55, 1.15, 1.15, 1.15, 1.15, 1.16, 1.11, 1.18, 1.12, 0.57, 0.57, 0.58, 0.0, 0.0, 0.0, 0.0, 0.0, 0.0, 0.0, 0.0, 0.0, 0.0, 0.0, 0.0, 0.0, 0.0, 0.0, 0.0, 1.23, 1.23, 2.32, 2.12, 2.4, 3.4, 6.13, 6.61, 5.81, 5.7, 5.7, 4.8, 4.09, 1.6, 0.0, 1.13, 3.72, 4.8, 4.77, 3.2, 1.4, 3.2, 5.09, 6.13, 5.72, 5.43, 4.52, 3.9, 4.71, 6.33, 6.64, 6.88, 7.69, 8.86, 9.31, 7.71, 7.13, 6.79, 6.9, -0.45, -1.58, -0.0, 1.6, 2.12, 2.68, 3.32, 3.83, 2.24, 1.86, 2.68, 4.24, 3.83, 3.84, 3.84, -2.8, -2.28, -2.17, -1.75, -1.75, -1.65, -1.11, -1.11, -1.18, -0.59, -0.56, -0.59, 0.0, 0.0, 0.0, 0.0, 0.56, 1.1, 1.15, 1.71, 1.16, 1.11, 1.12, 0.76, 0.83, 0.0, 0.57, 0.0, 0.0, 0.0, 0.0, 0.0, 0.0, 0.0, 0.0, 0.0, 0.0, 0.0, 0.0, 0.0, 0.0, 0.0, 0.0, 0.0, 0.0, 1.03, 1.1, 2.26, 2.4, 4.75, 6.32, 6.36, 6.14, 5.7, 5.4, 4.29, 3.48, 2.48, 3.16, 4.09, 4.8, 4.8, 3.72, 1.6, 2.97, 3.95, 4.66, 4.19, 1.63, 1.09, 1.08, 3.07, 4.75, 4.71, 2.97, 0.76, 0.0, 1.6, 3.91, 4.71, 4.75, 6.1, 6.1, 2.82, 0.0, -0.63, -0.0, 1.26, 2.21, 2.68, 3.83, 3.84, 2.68, 2.68, 4.87, 5.43, 4.46, 4.46, -2.8, -2.8, -2.28, -1.75, -1.75, -1.65, -1.11, -1.11, -1.18, -1.18, -1.18, -0.59, -0.56, 0.0, 0.0, 0.0, 0.55, 0.59, 0.77, 0.8, 0.76, 1.14, 1.12, 0.76, 0.0, 0.0, 0.0, 0.0, 0.0, 0.0, 0.0, 0.0, 0.0, 0.0, 0.0, 0.0, 0.0, 0.0, 0.0, 0.0, 0.0, 0.0, 0.0, 0.0, 0.0, 0.0, 1.18, 2.4, 3.4, 4.47, 5.59, 6.4, 6.23, 5.81, 3.74, 2.86, 3.79, 2.53, 3.22, 4.8, 4.09, 3.72, 3.82, 4.24, 3.04, 2.12, 1.86, 2.6, 0.0, 0.0, 0.0, 2.43, 2.37, 0.77, -0.8, -3.25, -5.38, -4.83, 0.0, 1.56, 3.76, 6.31, 7.82, 7.23, 3.78, 0.0, -0.4, 0.63, 1.2, 1.24, 2.24, 3.45, 3.32, 2.68, 3.97, 5.43, 4.74, 4.74, -2.8, -2.8, -2.42, -2.3, -1.75, -1.65, -1.65, -1.11, -1.11, -1.11, -1.11, -0.56, -0.56, -0.56, 0.0, 0.0, 0.55, 0.58, 0.55, 0.81, 0.73, 1.12, 1.16, 0.55, 0.58, 0.0, 0.0, 0.0, 0.0, 0.59, 0.56, 0.56, 0.59, 0.59, 0.56, 0.0, 0.0, 0.0, 0.0, 0.0, 0.0, 0.0, 0.0, 0.0, 0.57, 1.05, 1.14, 2.09, 3.4, 4.47, 5.59, 6.13, 6.4, 6.23, 5.37, 2.84, 2.41, 2.84, 3.72, 3.82, 3.2, 3.13, 3.58, 3.82, 2.54, 2.12, 1.58, 2.29, 2.31, 1.52, 3.11, 5.55, 4.81, -1.5, -4.12, -5.49, -8.55, -7.33, -4.56, -0.72, 4.83, 8.46, 9.67, 9.92, 8.62, 3.7, 0.71, 0.95, 0.63, 0.57, 1.2, 2.6, 3.74, 3.07, 2.6, 4.09, 4.07, 4.07, -3.3, -2.8, -2.42, -2.3, -2.17, -1.73, -1.73, -1.16, -1.16, -1.16, -1.11, -0.56, -0.56, 0.0, 0.0, 0.0, 0.0, 0.58, 0.57, 0.57, 0.57, 1.14, 1.14, 1.14, 1.18, 1.12, 1.18, 0.57, 0.6, 0.58, 1.16, 1.16, 1.16, 0.59, 0.56, 0.56, 0.59, 0.59, 0.56, 0.56, 0.0, 0.0, 0.0, 0.56, 0.59, 1.78, 2.17, 3.17, 4.22, 4.75, 5.59, 5.59, 6.13, 5.75, 5.24, 4.74, 4.11, 4.11, 3.72, 1.79, 1.26, 1.34, 1.79, 2.24, 2.12, 1.86, 1.49, 3.35, 5.77, 8.54, 10.16, 12.01, 11.73, 0.76, -4.02, -4.93, -7.06, -7.98, -6.11, -1.26, 3.07, 7.02, 8.62, 9.43, 9.43, 8.5, 5.52, 3.11, 1.8, -0.0, -0.0, 2.24, 3.32, 2.91, 2.6, 2.86, 3.07, 3.07, -3.45, -3.45, -2.8, -2.28, -2.28, -2.28, -1.73, -1.73, -1.16, -1.16, -1.16, -0.59, -0.59, 0.0, 0.0, 0.0, 0.0, 0.58, 0.57, 0.57, 1.14, 1.14, 1.14, 1.18, 1.67, 1.74, 1.74, 1.12, 1.14, 1.15, 1.1, 1.16, 1.16, 1.16, 1.16, 1.11, 1.11, 1.11, 1.16, 1.16, 0.59, 0.59, 0.56, 1.18, 1.75, 2.3, 3.3, 3.17, 4.46, 5.69, 5.69, 6.7, 5.93, 5.59, 5.24, 5.59, 5.46, 6.08, 4.4, -0.0, -0.0, 2.6, 3.58, 2.68, 2.12, 1.86, 2.21, 4.22, 6.51, 8.8, 10.21, 10.36, 4.71, -2.73, -2.6, -2.54, -4.92, -6.71, -5.64, -1.86, 0.57, 2.18, 3.82, 5.45, 7.11, 8.06, 7.79, 6.2, 5.95, 3.9, -1.16, -0.0, 1.34, 2.6, 2.6, 2.86, 2.84, 2.84, -3.45, -3.45, -3.49, -2.8, -2.28, -2.28, -1.73, -1.63, -1.1, -1.1, -1.1, -0.55, -0.55, 0.0, 0.0, 0.0, 0.0, 0.58, 0.57, 1.14, 1.14, 1.14, 1.76, 1.76, 1.67, 1.74, 1.74, 1.74, 1.76, 1.71, 1.15, 1.1, 1.16, 1.16, 1.16, 1.11, 1.11, 1.18, 1.11, 1.73, 1.71, 1.1, 1.16, 1.75, 2.3, 2.97, 4.36, 5.21, 6.4, 6.95, 6.64, 6.52, 5.93, 5.59, 5.59, 6.32, 5.43, 6.82, 5.59, 2.24, -0.0, 2.53, 4.02, 2.68, 2.12, 2.6, 3.84, 5.81, 5.31, 5.75, 4.46, 4.38, 6.31, 1.27, -0.0, -2.48, -4.77, -6.61, -6.36, -3.45, -2.17, -2.11, -0.65, 0.0, 1.52, 3.07, 4.58, 5.41, 6.05, 8.46, -0.0, -2.07, -0.76, 1.2, 2.24, 2.86, 3.49, 3.49, -3.45, -3.45, -3.3, -2.97, -2.8, -2.28, -1.71, -1.71, -1.71, -1.15, -1.15, -0.58, -0.55, 0.0, 0.0, 0.0, 0.0, 0.0, 0.57, 1.14, 1.14, 1.69, 1.76, 1.76, 1.67, 1.74, 1.74, 1.74, 1.76, 1.69, 1.15, 1.1, 1.16, 1.16, 1.16, 1.11, 1.18, 1.18, 1.18, 1.73, 1.71, 1.71, 1.81, 2.28, 2.97, 3.45, 4.8, 6.33, 6.98, 6.97, 6.95, 7.47, 6.01, 5.37, 5.93, 6.8, 6.4, 5.43, 5.93, 5.59, 3.82, 2.97, 2.97, 2.24, 3.2, 4.22, 4.8, 4.4, 4.4, 2.4, 1.6, 2.31, 5.73, 7.8, 1.49, -1.9, -3.07, -3.07, -5.7, -4.66, -4.92, -4.73, -3.97, -2.0, 0.0, 0.77, 2.97, 4.6, 5.59, 8.24, 10.98, 1.2, -1.2, -0.0, 2.54, 3.32, 4.09, 4.09, -3.45, -3.45, -3.45, -3.3, -2.8, -2.93, -2.25, -1.71, -1.71, -1.15, -1.15, -0.58, -0.55, 0.0, 0.0, 0.0, 0.0, 0.0, 0.58, 0.57, 1.14, 1.14, 1.76, 1.67, 1.74, 1.74, 1.74, 1.74, 1.67, 1.14, 1.15, 1.15, 1.16, 1.16, 0.56, 1.18, 1.18, 1.12, 1.18, 1.65, 1.73, 2.25, 2.25, 2.93, 3.45, 4.6, 5.92, 6.98, 7.6, 6.97, 6.97, 6.64, 7.47, 7.64, 6.52, 6.7, 6.13, 5.37, 6.23, 7.2, 6.7, 5.01, 3.39, 3.9, 4.4, 5.2, 5.34, 5.82, 5.37, 3.91, 2.35, 2.16, 3.83, 7.84, 8.62, 0.61, -3.32, -3.32, -2.91, -3.51, -5.75, -4.87, -4.09, -1.84, 0.0, 2.12, 5.28, 6.88, 6.95, 7.61, 8.66, 10.0, 2.82, -0.0, 0.65, 2.24, 3.49, 3.49, -3.42, -3.42, -3.45, -3.45, -2.93, -2.93, -2.77, -2.25, -1.79, -1.71, -1.15, -0.58, -0.58, 0.0, 0.0, 0.0, 0.0, 0.0, 0.58, 0.57, 0.57, 1.14, 1.14, 1.67, 1.74, 1.74, 1.74, 1.74, 1.12, 1.14, 1.15, 0.58, 0.55, 0.59, 0.56, 0.56, 0.56, 0.56, 0.56, 1.12, 1.73, 2.28, 2.93, 3.45, 4.12, 5.26, 6.33, 6.98, 7.28, 6.97, 6.97, 7.27, 6.95, 7.51, 7.06, 6.07, 6.32, 5.75, 4.15, 5.34, 6.52, 5.69, 5.01, 5.09, 6.23, 5.2, 5.2, 4.81, 4.95, 4.6, 3.95, 2.44, 3.07, 4.66, 8.71, 8.51, 0.0, -3.32, -2.21, -1.9, -2.0, -2.24, -2.17, -1.26, 0.54, 3.38, 6.42, 8.16, 8.46, 7.82, 6.29, 6.87, 9.54, 3.7, 1.2, 1.79, 2.86, 2.86, -2.9, -2.9, -2.9, -3.27, -3.45, -2.9, -2.9, -2.9, -2.35, -1.71, -1.15, -0.58, -0.58, 0.0, 0.0, 0.0, 0.0, 0.0, 0.0, 0.55, 0.55, 1.14, 1.14, 1.12, 1.74, 1.74, 1.74, 1.74, 1.74, 1.12, 1.14, 1.15, 0.59, 0.59, 0.56, 0.59, 0.56, 0.0, 0.57, 1.12, 1.18, 1.73, 2.93, 3.45, 4.63, 6.34, 6.98, 6.98, 7.28, 6.97, 7.27, 7.55, 7.55, 7.51, 7.44, 7.07, 6.7, 6.13, 4.4, 5.2, 5.43, 5.69, 5.77, 6.28, 5.34, 5.81, 2.53, 1.8, 0.81, 2.54, 3.16, 2.37, 0.75, 0.8, 2.28, 6.47, 5.51, 0.0, -1.86, -1.24, -0.0, 0.0, 0.63, 0.66, 1.35, 3.0, 5.59, 7.08, 7.9, 7.01, 5.99, 5.38, 8.6, 7.8, 5.09, 2.79, 2.15, 2.15, -2.87, -2.87, -2.75, -2.9, -2.9, -2.9, -2.9, -2.9, -2.35, -2.25, -1.15, -0.58, -0.58, 0.0, 0.0, 0.0, 0.0, 0.0, 0.0, 0.55, 0.58, 1.14, 1.14, 1.17, 1.17, 1.17, 1.74, 1.74, 1.74, 1.12, 1.14, 1.15, 1.16, 0.56, 0.56, 0.56, 0.56, 0.0, 0.0, 0.56, 1.12, 1.73, 2.8, 3.88, 5.28, 6.35, 6.35, 6.95, 7.55, 7.59, 7.59, 7.59, 7.55, 7.51, 7.44, 7.35, 7.64, 7.37, 5.43, 4.84, 5.09, 5.77, 6.07, 6.57, 5.34, 5.43, 4.46, 0.71, -1.49, -1.6, 0.0, 1.5, 2.25, 0.0, -3.78, -3.07, 1.53, 3.89, 0.79, -0.95, -0.0, 1.27, 2.33, 3.07, 2.12, 2.06, 3.69, 4.0, 4.4, 4.65, 4.65, 4.71, 5.48, 7.8, 7.08, 4.87, 3.55, 3.55, -2.87, -2.87, -2.87, -2.87, -2.87, -2.87, -2.75, -2.9, -2.35, -1.71, -1.15, -0.58, 0.0, 0.0, 0.0, 0.0, 0.0, 0.0, 0.57, 0.55, 0.58, 1.14, 1.12, 1.17, 1.17, 1.17, 1.17, 1.17, 1.17, 1.12, 1.14, 1.15, 0.56, 0.56, 0.56, 0.56, 0.59, 0.56, 0.56, 0.56, 1.12, 2.3, 3.45, 4.6, 6.34, 6.42, 6.24, 6.92, 7.55, 7.86, 8.19, 8.15, 8.15, 8.08, 8.0, 7.72, 7.15, 7.15, 6.44, 5.09, 5.15, 5.43, 5.82, 4.84, 5.09, 6.28, 7.44, 5.72, 0.0, -3.16, -1.6, 2.47, 5.51, 3.04, -3.7, -8.06, -5.28, 0.0, 3.12, 1.5, 0.0, 0.0, 1.22, 2.33, 2.3, 1.43, 1.32, 1.43, 1.42, 2.1, 2.87, 3.78, 4.24, 6.14, 6.24, 5.6, 5.04, 5.04, -2.33, -2.33, -2.33, -2.3, -2.84, -2.87, -2.75, -2.35, -2.25, -1.71, -1.15, -1.15, 0.0, 0.0, 0.0, 0.0, 0.0, 0.57, 0.57, 0.57, 1.14, 1.14, 1.12, 1.17, 1.17, 1.17, 1.17, 1.17, 1.17, 1.12, 1.14, 0.55, 0.56, 0.0, 0.0, 0.56, 0.59, 0.59, 1.18, 1.12, 1.67, 2.83, 4.16, 5.26, 6.34, 6.42, 6.88, 7.55, 7.55, 7.88, 8.15, 8.15, 8.44, 8.08, 8.37, 8.0, 8.0, 7.72, 6.79, 6.08, 5.46, 4.81, 4.84, 4.22, 4.38, 4.92, 6.28, 7.81, 5.72, 1.14, 0.0, 3.33, 5.67, 7.33, 1.54, -7.28, -9.11, -6.32, -1.58, 1.57, 0.67, 0.0, 0.0, 1.15, 1.79, 1.83, 1.19, 0.7, 0.0, 0.7, 1.44, 1.46, 2.09, 3.47, 4.87, 5.02, 4.96, 4.96, -2.21, -2.21, -2.3, -2.3, -2.84, -2.84, -2.33, -2.35, -1.71, -1.71, -1.1, -0.55, 0.0, 0.0, 0.0, 0.0, 0.0, 0.57, 0.57, 0.57, 1.14, 1.18, 1.12, 1.17, 1.17, 1.17, 1.17, 1.12, 0.79, 1.15, 0.55, 0.56, 0.56, 0.0, 0.0, 0.0, 0.56, 0.59, 1.11, 1.75, 2.3, 2.83, 3.97, 5.7, 6.34, 6.98, 7.6, 7.9, 7.88, 7.55, 7.55, 7.85, 8.08, 8.08, 8.37, 8.37, 8.0, 7.44, 7.72, 6.79, 6.08, 4.84, 3.83, 3.83, 3.51, 3.58, 3.47, 4.43, 5.72, 5.69, 3.91, 3.09, 2.33, 4.45, 4.66, -2.4, -8.8, -7.89, -6.06, -2.06, 0.65, 0.72, 0.0, 0.59, 0.6, 1.21, 1.2, 0.61, 0.0, 0.0, 0.0, 0.71, 1.39, 2.1, 4.24, 4.15, 4.28, 4.28, -2.3, -2.3, -2.3, -2.39, -2.39, -2.3, -2.33, -2.35, -1.71, -1.16, -0.59, -0.55, 0.0, 0.0, 0.0, 0.0, 0.0, 0.6, 0.6, 0.57, 1.18, 1.12, 1.12, 1.17, 1.17, 1.12, 1.12, 1.17, 1.17, 0.75, 0.59, 0.0, 0.0, 0.0, 0.0, 0.0, 0.0, 0.59, 1.11, 1.73, 2.97, 3.32, 4.66, 5.72, 6.63, 7.3, 7.6, 7.86, 7.59, 7.55, 7.51, 7.51, 7.73, 8.0, 8.0, 8.0, 7.8, 7.8, 7.44, 7.35, 6.79, 3.83, 5.24, 3.84, 3.83, 3.6, 2.6, 1.8, 2.49, 3.45, 4.71, 2.44, 0.0, 0.0, 2.42, 0.7, -4.24, -6.71, -5.86, -4.11, -0.7, 0.63, 0.7, 0.0, 0.0, 0.57, 1.17, 1.19, 0.73, 0.0, 0.79, 0.71, 0.69, 2.06, 2.97, 3.95, 3.6, 3.6, -2.3, -2.3, -2.28, -2.28, -2.39, -2.3, -2.23, -1.71, -1.71, -1.16, -0.59, -0.55, 0.0, 0.0, 0.0, 0.0, 0.0, 0.6, 0.6, 0.6, 1.18, 1.12, 1.12, 1.17, 1.12, 1.12, 1.12, 1.17, 0.58, 0.56, 0.57, 0.0, 0.0, 0.0, 0.0, 0.0, 0.0, 0.56, 1.16, 2.28, 2.8, 3.97, 4.66, 5.34, 6.35, 6.97, 7.59, 7.59, 7.86, 8.15, 8.08, 8.08, 8.0, 8.0, 7.8, 7.8, 7.44, 7.44, 7.44, 7.35, 6.52, 5.59, 5.59, 4.74, 3.48, 3.16, 2.68, 1.66, 2.32, 2.33, 3.11, 2.33, 0.0, -0.81, 0.78, 3.06, 0.0, -3.58, -5.77, -4.66, -1.9, 0.0, 0.0, 0.0, 0.0, 0.0, 0.6, 1.2, 0.71, 0.61, 1.2, 1.6, 1.41, 1.52, 2.26, 3.44, 3.4, 3.4, -2.96, -2.96, -2.28, -2.28, -2.3, -2.21, -1.69, -1.71, -1.15, -1.16, -0.55, -0.58, 0.0, 0.0, 0.0, 0.0, 0.0, 0.57, 0.6, 0.6, 0.56, 1.12, 1.12, 1.17, 1.12, 1.12, 1.17, 0.56, 0.58, 0.58, 0.0, 0.0, 0.0, 0.0, 0.0, 0.0, 0.59, 1.15, 1.71, 2.93, 3.45, 4.16, 4.66, 5.34, 6.01, 6.95, 6.95, 7.55, 7.55, 7.81, 8.08, 8.08, 8.08, 7.73, 7.8, 7.8, 7.44, 7.44, 7.44, 7.15, 6.57, 6.52, 5.37, 4.47, 3.76, 2.98, 1.8, 0.81, 0.78, 0.8, 1.43, 2.19, 2.28, 1.61, 2.39, 3.7, 2.15, 0.0, -2.8, -3.13, -1.79, -1.49, -0.7, -0.67, 0.0, 0.0, 1.25, 0.59, 1.2, 1.49, 1.7, 1.49, 1.6, 1.35, 1.41, 2.12, 3.4, 3.4, -2.82, -2.82, -2.28, -2.28, -2.3, -1.67, -1.69, -1.15, -1.15, -0.55, -0.58, -0.58, 0.0, 0.0, 0.0, 0.0, 0.0, 0.57, 0.57, 0.6, 0.56, 0.56, 0.59, 0.59, 0.56, 0.59, 0.59, 0.58, 0.58, 0.0, 0.0, 0.0, 0.0, -0.59, 0.0, 0.0, 0.58, 1.71, 2.25, 3.45, 3.94, 4.63, 5.06, 5.09, 5.38, 6.32, 6.64, 6.95, 7.23, 7.85, 8.08, 8.08, 7.73, 7.51, 7.44, 7.44, 7.44, 7.21, 6.87, 6.28, 6.28, 5.69, 5.37, 3.07, 2.53, 2.4, 0.87, 0.0, 0.0, 0.0, 0.0, 3.21, 4.65, 5.45, 3.82, 1.33, 2.5, 3.91, 0.76, -0.61, -1.86, -1.58, -1.49, -0.67, 0.0, 0.0, 0.57, 0.95, 1.2, 1.7, 1.7, 1.49, 0.85, 0.79, 0.67, 0.69, 2.26, 2.26, -2.82, -2.82, -2.28, -2.28, -1.74, -1.67, -1.14, -1.15, -0.58, -0.58, -0.58, 0.0, 0.0, 0.0, 0.0, 0.0, 0.0, 0.57, 0.6, 0.56, 0.56, 0.56, 0.56, 0.56, 0.56, 0.59, 0.56, 0.58, 0.0, 0.0, 0.0, 0.0, 0.0, 0.0, 0.0, 0.55, 1.14, 2.23, 2.9, 3.45, 3.94, 4.63, 5.32, 4.96, 5.1, 5.71, 6.32, 6.64, 6.92, 7.51, 7.51, 7.51, 7.51, 7.44, 7.21, 7.21, 6.87, 6.87, 6.28, 6.28, 5.71, 5.71, 4.22, 2.15, 2.41, 2.32, 0.73, 0.0, 0.0, 0.0, 2.51, 5.49, 6.7, 7.88, 6.31, 0.0, -0.89, 0.76, 2.28, 0.65, 0.0, -0.4, 0.0, 0.0, 0.0, 0.71, 0.6, 0.95, 0.95, 1.26, 0.95, 0.8, 0.0, 0.0, 0.0, 0.0, 0.0, 0.71, -2.28, -2.28, -2.28, -2.28, -1.74, -1.12, -1.14, -0.55, -0.58, -0.55, -0.57, 0.0, 0.0, 0.0, 0.0, 0.0, 0.0, 0.57, 0.56, 0.56, 0.56, 0.56, 0.56, 0.56, 0.59, 0.59, 0.58, 0.0, 0.0, 0.0, 0.0, 0.0, 0.0, 0.0, 0.57, 1.14, 1.69, 2.75, 3.42, 4.12, 4.4, 4.63, 5.06, 5.38, 5.1, 5.1, 5.69, 6.28, 6.59, 6.92, 6.92, 6.92, 6.92, 7.21, 6.87, 6.87, 6.87, 6.28, 6.28, 5.71, 5.71, 5.38, 4.71, 2.07, 2.2, 3.45, 2.49, 2.29, 2.29, 3.11, 4.74, 6.87, 7.95, 7.11, 8.5, 4.0, -5.36, -5.43, -1.36, 1.33, 2.24, 1.79, 1.2, 1.33, 1.55, 1.49, 1.2, 1.2, 0.65, 0.54, 0.0, 0.0, 0.0, -0.73, -0.72, -0.71, -1.44, 0.0, -2.28, -2.28, -2.28, -1.74, -1.74, -1.12, -1.14, -0.57, -0.57, -0.57, -0.57, 0.0, 0.0, 0.0, 0.0, 0.6, 0.6, 0.6, 0.0, 0.0, 0.0, 0.56, 0.56, 0.56, 0.59, 0.0, 0.0, 0.0, 0.0, 0.0, 0.0, 0.0, 0.0, 0.57, 1.12, 1.67, 2.33, 3.39, 4.08, 3.91, 4.6, 4.84, 5.06, 5.72, 6.14, 5.38, 5.69, 5.69, 6.28, 6.32, 6.32, 6.62, 6.62, 6.62, 6.62, 6.28, 6.28, 6.01, 6.01, 5.71, 5.38, 5.1, 4.08, 4.22, 3.68, 3.45, 2.6, 3.22, 3.9, 4.74, 5.82, 6.44, 6.98, 6.67, 8.87, 9.54, -1.6, -8.36, -3.07, 1.86, 3.53, 3.07, 3.48, 3.0, 2.66, 2.26, 2.2, 1.35, 0.59, 0.0, -0.54, -1.24, -1.2, -1.6, -1.55, -2.4, -2.75, -1.44, -2.39, -2.39, -2.3, -1.74, -1.74, -1.12, -1.12, -1.12, -0.6, -0.56, -0.57, 0.0, 0.0, 0.0, 0.0, 0.0, 0.0, 0.0, 0.0, 0.0, 0.0, 0.0, 0.0, 0.0, 0.0, 0.0, 0.0, 0.0, 0.0, 0.0, 0.0, 0.0, 0.0, 0.6, 1.12, 2.3, 2.84, 4.05, 4.54, 4.57, 4.8, 5.04, 5.29, 5.72, 5.72, 6.14, 5.71, 5.69, 5.69, 6.01, 6.01, 6.28, 6.28, 6.28, 6.28, 6.28, 6.01, 5.69, 5.69, 5.38, 5.38, 5.38, 5.2, 4.22, 3.2, 3.2, 2.4, 3.45, 3.22, 5.15, 6.44, 6.44, 6.01, 5.92, 7.95, 10.91, 7.01, -1.7, -2.4, 1.55, 3.13, 4.0, 3.38, 2.75, 2.69, 2.06, 1.35, 1.41, 0.7, 0.0, -1.2, -1.9, -2.41, -2.51, -2.31, -2.99, -3.09, -3.09, -2.3, -2.3, -1.74, -1.74, -1.74, -1.17, -1.12, -1.12, -0.56, -0.56, 0.0, 0.0, 0.0, 0.0, 0.0, 0.0, 0.0, 0.0, 0.0, 0.0, 0.0, 0.0, 0.0, 0.0, 0.0, 0.0, 0.0, 0.0, 0.0, -0.56, -0.56, -0.57, 0.0, 0.0, 1.12, 2.3, 2.84, 4.05, 4.54, 5.23, 5.23, 5.26, 5.7, 5.72, 5.72, 6.0, 6.06, 5.71, 5.69, 5.69, 5.69, 5.69, 5.69, 5.69, 5.69, 5.69, 5.69, 5.38, 5.1, 5.1, 4.73, 4.71, 4.46, 4.46, 4.22, 4.22, 4.75, 3.45, 3.79, 4.81, 5.82, 4.95, 4.44, 5.52, 6.94, 8.16, 10.91, 7.08, 1.2, -0.0, -0.0, 1.61, 2.54, 2.97, 2.06, 0.78, 0.59, 0.73, 0.72, 0.0, -1.88, -3.16, -3.43, -3.2, -3.09, -3.0, -3.0, -3.0, -1.74, -1.74, -1.74, -1.74, -1.74, -1.17, -1.12, -1.12, -0.56, -0.56, -0.56, 0.0, 0.0, 0.0, 0.0, 0.0, 0.0, 0.0, 0.0, 0.0, 0.0, 0.0, 0.0, 0.0, 0.0, 0.0, 0.0, -0.57, -0.55, -0.56, -0.56, -0.57, 0.0, 0.0, 1.17, 1.74, 2.84, 3.53, 4.57, 5.23, 5.23, 5.92, 5.69, 5.7, 6.08, 6.35, 5.72, 5.72, 5.71, 5.69, 5.69, 5.69, 5.69, 5.69, 5.69, 5.69, 5.38, 5.38, 5.1, 4.73, 4.73, 4.71, 4.71, 4.44, 4.46, 4.75, 4.75, 4.47, 4.46, 4.81, 4.01, 4.16, 5.1, 5.52, 5.51, 6.31, 8.12, 10.52, 8.8, 3.2, -0.89, -1.79, 0.0, 1.49, 1.44, 0.67, 0.0, 0.0, 0.74, 0.0, -1.49, -3.07, -3.72, -3.0, -3.11, -2.3, -2.3, -2.3, -1.74, -1.74, -1.74, -1.74, -1.74, -1.17, -1.17, -1.17, -0.56, -0.56, -0.56, -0.56, -0.56, -0.56, 0.0, 0.0, 0.0, 0.0, 0.0, 0.0, 0.0, 0.0, 0.0, 0.0, 0.0, -0.57, -0.57, -0.57, -0.58, 0.0, 0.0, 0.0, 0.0, 0.56, 1.16, 1.72, 2.84, 3.39, 3.91, 4.6, 5.26, 5.69, 5.95, 6.34, 6.35, 6.35, 6.35, 6.01, 6.01, 5.71, 5.69, 5.69, 5.69, 5.69, 5.69, 5.38, 5.38, 5.08, 4.73, 4.73, 4.46, 4.71, 4.71, 5.1, 6.01, 5.69, 5.37, 4.81, 4.46, 4.81, 4.74, 5.06, 5.59, 5.52, 5.3, 5.6, 6.47, 7.88, 10.12, 9.43, 3.91, -2.24, -2.68, 0.0, 1.45, 1.32, 0.0, 0.0, 0.0, 0.0, -1.1, -3.16, -3.07, -2.53, -1.49, -1.26, -1.26, -1.26, -1.74, -1.74, -1.74, -1.74, -1.74, -1.17, -1.17, -1.17, -0.56, -0.56, -0.56, -0.56, -0.56, -0.56, -0.56, -0.56, -0.56, -0.56, 0.0, 0.0, 0.0, 0.0, 0.0, -0.56, -0.58, -0.57, -0.57, -0.58, -0.56, 0.0, 0.0, 0.56, 0.56, 1.16, 1.79, 2.28, 2.96, 3.53, 4.08, 4.6, 5.04, 5.29, 5.7, 5.7, 6.35, 6.35, 6.08, 5.72, 5.72, 5.71, 6.01, 5.69, 5.69, 5.69, 5.38, 5.38, 4.75, 4.75, 4.73, 4.73, 4.71, 4.71, 5.1, 5.72, 6.01, 5.72, 5.37, 4.81, 4.74, 4.81, 4.74, 5.77, 5.59, 5.28, 4.8, 4.87, 5.67, 6.89, 8.83, 9.54, 9.31, 0.7, -3.32, -1.79, 0.7, 1.36, 0.72, 0.0, -1.33, -1.23, -1.13, -1.26, -1.26, -0.95, -0.45, 0.0, 0.0, 0.0, -1.74, -1.74, -1.66, -1.66, -1.11, -1.17, -1.17, -1.17, -0.59, -0.56, -0.56, -0.56, -0.56, -0.56, -0.56, -0.56, -0.56, -0.56, -0.56, -0.56, -0.56, -0.59, -0.59, -0.58, -0.58, -0.57, -1.16, -0.58, -0.59, 0.0, 0.0, 0.59, 0.58, 1.14, 1.71, 2.37, 2.82, 3.37, 4.08, 4.8, 5.04, 5.29, 5.06, 5.72, 5.98, 5.98, 6.35, 6.0, 5.72, 6.01, 5.71, 6.01, 5.69, 5.38, 5.08, 4.75, 4.75, 4.75, 4.73, 4.73, 4.71, 5.1, 5.72, 6.32, 6.32, 6.32, 5.93, 5.59, 5.93, 4.74, 5.46, 5.77, 5.1, 4.83, 4.6, 5.0, 5.6, 7.11, 8.51, 8.74, 9.32, 6.31, -0.63, -2.5, -1.24, 0.0, 0.0, -0.54, -1.24, 0.0, -0.0, -0.0, -0.0, -0.0, -0.0, 0.0, 0.0, 0.0, -1.66, -1.66, -1.66, -1.11, -1.11, -1.17, -1.17, -0.59, -0.59, -0.59, -0.56, -0.56, -0.56, -0.56, -0.56, -0.56, -0.56, -0.56, -0.56, -0.56, -0.56, -0.59, -0.59, -0.58, -0.58, -0.58, -0.58, -0.56, -0.56, 0.0, 0.0, 0.0, 0.58, 1.14, 1.71, 2.26, 2.93, 4.02, 4.54, 5.02, 5.26, 5.04, 5.06, 5.32, 5.72, 5.72, 5.72, 5.72, 5.72, 5.72, 5.71, 6.01, 5.38, 5.38, 4.75, 4.75, 4.75, 4.47, 4.73, 4.71, 5.1, 5.44, 6.01, 6.32, 6.62, 6.32, 5.69, 5.93, 5.06, 3.72, 3.22, 4.29, 4.83, 4.6, 5.52, 5.63, 6.33, 7.13, 8.16, 8.51, 8.62, 9.66, 5.28, -0.45, -2.68, -2.6, -0.89, -0.0, 0.89, 0.8, 0.6, -0.0, -0.0, -0.0, -0.0, -0.0, -0.0, -0.0, -1.72, -1.72, -1.11, -1.11, -1.17, -1.17, -1.17, -0.59, -0.59, -0.56, -0.56, -0.56, -0.56, -0.56, -0.56, -0.56, -0.56, -0.56, -0.56, -0.56, -1.12, -1.17, -1.17, -0.56, -0.58, -0.58, -0.58, -0.56, 0.0, 0.0, 0.0, 0.0, 0.57, 1.19, 1.77, 2.93, 3.47, 4.02, 4.54, 5.23, 5.92, 5.69, 5.7, 5.32, 5.32, 5.32, 5.72, 5.72, 5.72, 5.72, 5.71, 5.1, 5.1, 4.73, 4.47, 4.47, 4.47, 4.73, 4.73, 5.38, 5.38, 5.71, 5.71, 6.01, 6.28, 6.06, 6.44, 5.77, 4.74, 3.22, 3.22, 3.35, 4.16, 5.59, 6.14, 6.57, 6.33, 7.01, 7.93, 8.99, 9.2, 10.35, 10.05, 3.22, -1.58, -2.15, 2.07, 3.22, 3.13, 2.63, 1.2, 0.63, -0.0, -0.0, -0.0, -0.95, -0.95, -0.95, -1.72, -1.66, -1.11, -1.17, -1.17, -1.17, -1.17, -0.56, -0.56, -0.56, -0.56, -0.56, -0.56, -0.56, -0.56, -0.56, -0.56, -0.56, -0.56, -1.12, -1.12, -1.17, -1.17, -0.59, -0.59, -0.56, 0.0, 0.0, 0.0, 0.0, 0.0, 0.0, 0.57, 1.77, 2.34, 2.93, 3.99, 4.51, 4.72, 5.23, 5.23, 5.69, 5.95, 5.7, 5.32, 5.08, 5.08, 5.34, 5.72, 5.72, 5.38, 5.1, 4.73, 4.73, 4.47, 4.47, 4.73, 4.73, 5.1, 5.38, 5.38, 5.71, 5.71, 6.28, 6.28, 6.39, 6.44, 6.39, 5.69, 4.65, 4.74, 3.72, 2.3, 4.16, 5.89, 6.79, 7.24, 7.12, 8.05, 7.71, 8.51, 9.43, 9.42, 7.35, 0.6, 2.04, 3.64, 4.46, 4.87, 5.02, 4.12, 1.9, 1.26, 1.34, 0.45, -0.63, -0.63, -0.63, -1.66, -1.74, -1.17, -1.17, -1.17, -1.17, -1.12, -0.56, -0.56, -0.56, -0.56, -0.56, -0.56, -0.56, -0.56, -0.56, -0.56, -0.56, -1.12, -1.12, -1.12, -1.12, -1.12, -0.56, -0.59, -0.56, 0.0, 0.0, 0.0, 0.0, 0.57, 0.57, 1.19, 2.34, 2.9, 3.47, 4.17, 4.51, 4.72, 5.23, 5.02, 5.26, 5.69, 5.7, 5.72, 5.08, 5.34, 5.34, 5.09, 5.36, 5.1, 4.46, 4.73, 4.73, 4.73, 4.73, 4.73, 5.1, 5.1, 5.38, 5.38, 5.38, 5.71, 6.28, 6.87, 6.79, 6.08, 6.06, 6.73, 7.06, 6.39, 5.69, 4.43, 3.58, 4.74, 6.24, 7.36, 7.12, 6.9, 6.4, 7.11, 8.51, 7.91, 5.52, 1.41, 3.0, 3.38, 4.11, 5.05, 6.22, 6.59, 5.69, 3.79, 3.16, 1.88, 0.54, 0.54, 0.54, -1.74, -1.74, -1.74, -1.17, -1.17, -1.12, -1.12, -1.12, -0.56, -0.56, -0.56, -0.56, -0.56, -0.56, -0.6, -0.56, -1.12, -1.12, -1.12, -1.12, -1.12, -1.12, -1.18, -0.56, -0.59, -0.58, -0.58, 0.0, 0.0, 0.0, 0.57, 1.14, 1.77, 2.9, 3.44, 4.13, 4.68, 4.98, 5.2, 5.2, 5.23, 5.02, 5.26, 5.7, 5.98, 5.72, 5.72, 5.72, 5.09, 5.36, 5.1, 4.71, 4.46, 4.46, 4.73, 5.1, 5.1, 5.1, 5.1, 5.1, 5.38, 5.38, 6.01, 6.28, 6.28, 6.57, 6.06, 6.44, 7.07, 7.06, 6.73, 7.06, 6.7, 5.43, 4.46, 6.01, 6.31, 6.77, 6.1, 5.48, 6.2, 7.2, 7.69, 0.95, 1.98, 3.32, 3.48, 4.12, 5.2, 6.26, 7.28, 6.95, 5.69, 5.06, 4.56, 3.69, 3.69, 3.69, -1.74, -1.74, -1.74, -1.74, -1.12, -1.12, -1.12, -1.12, -0.56, -0.56, -0.56, -0.56, -0.56, -0.56, -0.6, -1.18, -1.12, -1.12, -1.12, -1.12, -1.12, -1.12, -1.18, -0.56, -0.56, -0.58, -0.57, 0.0, 0.0, 0.0, 0.57, 1.14, 1.71, 2.9, 3.96, 4.65, 5.17, 5.17, 5.2, 5.2, 5.0, 5.23, 5.26, 5.7, 5.98, 5.72, 6.0, 5.72, 5.72, 5.09, 5.09, 5.1, 4.71, 5.1, 5.38, 5.1, 5.1, 4.73, 4.73, 4.73, 4.73, 5.1, 5.69, 5.69, 5.69, 5.98, 5.98, 6.23, 6.44, 6.11, 6.08, 6.44, 7.06, 6.39, 5.77, 5.77, 6.14, 6.56, 6.9, 6.1, 6.1, 6.28, 5.51, 0.0, 1.4, 4.29, 5.44, 4.73, 4.52, 4.92, 5.95, 5.98, 5.0, 4.95, 4.71, 4.5, 4.5, 4.5, -1.74, -1.74, -1.74, -1.67, -1.12, -1.12, -1.18, -1.18, -1.18, -0.6, -0.6, -0.56, -0.56, -1.12, -1.18, -1.12, -1.12, -1.12, -1.12, -1.12, -1.12, -1.12, -1.18, -1.17, -1.16, -0.57, -0.57, -0.57, 0.0, 0.0, 0.55, 1.16, 1.71, 2.8, 3.6, 4.48, 4.68, 5.2, 5.2, 5.2, 5.2, 5.23, 5.26, 5.7, 5.98, 6.08, 6.0, 5.72, 5.72, 5.34, 5.09, 5.09, 5.1, 5.1, 5.1, 4.73, 4.73, 4.73, 4.73, 4.73, 4.73, 5.1, 5.38, 5.38, 5.38, 5.65, 5.98, 5.65, 5.77, 5.43, 5.82, 5.82, 5.43, 5.37, 5.77, 4.16, 5.49, 6.45, 6.9, 7.13, 6.31, 7.01, 8.8, 2.2, -0.0, 4.71, 7.89, 7.12, 3.58, 2.68, 3.07, 4.02, 3.64, 3.11, 3.09, 3.06, 3.06, 3.06, -1.74, -1.74, -1.67, -1.67, -1.67, -1.18, -1.18, -1.18, -1.18, -1.18, -1.18, -1.18, -1.12, -1.12, -1.18, -1.12, -1.12, -1.12, -1.12, -1.12, -1.12, -1.12, -1.18, -1.17, -1.16, -0.57, -0.6, -0.6, 0.0, 0.0, 0.0, 1.16, 1.72, 2.37, 3.47, 4.02, 4.72, 4.54, 5.0, 5.2, 5.2, 5.23, 5.69, 5.7, 5.98, 5.72, 5.72, 5.72, 5.34, 5.34, 5.09, 5.09, 4.71, 4.71, 4.71, 4.46, 4.05, 4.05, 4.05, 4.46, 4.73, 4.47, 4.75, 4.75, 5.08, 5.37, 5.37, 5.37, 5.35, 5.15, 4.81, 4.74, 4.74, 5.06, 4.95, 3.33, 2.51, 4.71, 5.4, 6.31, 7.13, 8.16, 9.63, 8.02, 1.16, 3.11, 7.06, 8.48, 5.31, 2.12, 1.26, 1.88, 2.66, 1.55, 1.41, 2.31, 2.31, 2.31, -1.74, -1.74, -1.67, -1.67, -1.76, -1.18, -1.18, -1.18, -1.18, -1.18, -1.18, -1.18, -1.12, -1.12, -1.18, -1.12, -1.12, -1.67, -1.67, -1.67, -1.67, -1.67, -1.67, -1.16, -1.14, -0.6, -0.57, 0.0, 0.0, 0.0, 0.0, 0.58, 1.16, 1.72, 2.82, 3.37, 4.05, 4.57, 4.57, 4.54, 5.0, 5.23, 5.26, 5.7, 5.72, 5.72, 5.72, 5.08, 5.08, 5.09, 4.69, 4.45, 4.45, 4.71, 4.05, 4.05, 4.05, 4.05, 4.05, 4.05, 4.46, 4.73, 4.47, 4.75, 4.75, 4.75, 4.75, 5.06, 5.01, 4.11, 4.81, 4.74, 4.74, 5.06, 4.83, 3.91, 3.4, 3.15, 4.8, 5.99, 7.69, 8.06, 8.83, 10.12, 6.42, 2.68, 5.69, 7.76, 7.27, 2.79, 0.6, 1.24, 1.35, 0.76, 0.76, 0.71, 0.71, 0.71, -1.67, -1.67, -1.67, -1.76, -1.76, -1.76, -1.18, -1.18, -1.18, -1.18, -1.18, -1.18, -1.18, -1.18, -1.12, -1.12, -1.67, -1.74, -1.74, -1.74, -1.74, -1.67, -1.74, -1.16, -1.14, -0.6, 0.0, 0.0, 0.0, 0.0, 0.0, 0.55, 1.16, 1.72, 2.3, 2.87, 3.57, 3.91, 4.08, 4.57, 4.76, 5.02, 5.26, 5.29, 5.32, 5.08, 5.08, 4.66, 4.44, 4.69, 4.69, 4.03, 4.03, 4.03, 4.03, 3.81, 3.81, 3.81, 4.03, 4.05, 4.05, 4.05, 4.47, 4.47, 4.75, 4.47, 4.75, 4.45, 4.43, 4.11, 4.43, 4.74, 5.15, 5.06, 4.83, 4.96, 4.96, 4.12, 4.83, 6.87, 7.01, 7.23, 7.27, 8.08, 8.2, 5.37, 4.24, 6.55, 7.9, 6.11, 1.94, 0.65, 0.0, 0.0, 0.0, 0.0, 0.0, 0.0, -1.67, -1.67, -1.76, -1.76, -1.76, -1.76, -1.69, -1.18, -1.18, -1.18, -1.18, -1.18, -1.18, -1.18, -1.67, -1.67, -1.74, -1.74, -1.74, -1.74, -1.74, -1.74, -1.74, -1.74, -0.57, -0.57, 0.0, 0.0, 0.0, 0.0, 0.57, 0.57, 1.16, 1.66, 2.3, 2.87, 3.42, 3.42, 3.91, 4.08, 4.57, 4.57, 4.6, 4.63, 4.63, 4.66, 4.66, 4.0, 4.0, 4.24, 4.03, 4.03, 4.03, 4.03, 3.56, 3.56, 3.56, 3.37, 3.56, 3.81, 4.05, 4.05, 4.32, 4.08, 4.47, 4.47, 4.12, 4.12, 3.84, 4.12, 4.12, 4.74, 4.74, 4.74, 4.95, 4.71, 4.6, 4.96, 5.49, 6.57, 7.12, 7.01, 6.24, 7.0, 8.68, 7.08, 3.58, 5.2, 7.9, 8.31, 5.54, 1.36, 0.0, -0.66, -0.73, -1.6, -1.6, -1.6, -2.33, -2.33, -1.76, -1.76, -1.76, -1.76, -1.69, -1.69, -1.76, -1.76, -1.76, -1.76, -1.76, -1.67, -1.67, -1.74, -1.74, -1.74, -1.74, -1.74, -1.74, -2.3, -1.74, -1.74, -0.57, -0.6, 0.0, 0.0, 0.0, 0.59, 0.57, 1.14, 1.16, 1.74, 2.21, 2.87, 3.42, 3.45, 4.12, 3.91, 3.91, 4.12, 4.6, 4.63, 3.97, 4.2, 4.0, 4.0, 4.0, 3.8, 3.56, 3.56, 3.56, 3.56, 3.35, 3.35, 3.56, 3.56, 3.37, 3.37, 3.37, 4.05, 4.05, 4.08, 4.08, 4.1, 4.1, 4.12, 3.84, 3.84, 4.12, 4.29, 4.74, 4.47, 4.16, 4.26, 4.71, 5.59, 5.59, 5.76, 6.09, 6.2, 6.35, 7.04, 9.63, 8.46, 5.43, 5.34, 7.59, 8.51, 7.77, 4.8, 0.64, -1.33, -2.07, -2.66, -2.66, -2.66, -2.33, -2.33, -2.33, -1.76, -1.76, -1.76, -1.76, -1.76, -1.76, -1.76, -1.76, -1.76, -1.76, -1.67, -1.67, -1.74, -1.74, -1.74, -1.74, -1.74, -1.72, -1.72, -1.74, -1.74, -0.58, 0.0, 0.0, 0.0, 0.58, 0.59, 1.13, 1.14, 1.72, 2.3, 2.84, 2.87, 3.42, 3.45, 3.45, 4.12, 4.12, 3.94, 3.94, 3.97, 3.49, 3.52, 3.52, 3.52, 3.35, 3.35, 3.35, 3.35, 3.35, 3.35, 2.86, 2.86, 2.86, 2.86, 3.56, 3.37, 3.37, 3.6, 4.05, 3.83, 4.08, 3.84, 4.1, 3.45, 3.72, 3.47, 3.84, 4.12, 4.12, 4.75, 3.9, 4.03, 4.83, 5.59, 5.59, 4.96, 4.71, 5.6, 6.4, 7.08, 9.66, 10.32, 8.65, 6.7, 7.97, 9.6, 9.54, 7.82, 4.31, 0.0, -2.84, -3.48, -3.48, -3.48, -2.33, -2.33, -2.33, -1.76, -1.76, -1.76, -1.76, -1.76, -1.76, -1.76, -1.76, -1.76, -1.76, -1.67, -1.67, -1.74, -1.74, -1.74, -1.74, -1.74, -1.72, -1.72, -1.74, -1.74, -0.58, 0.0, 0.0, 0.0, 0.58, 0.59, 1.13, 1.14, 1.72, 2.3, 2.84, 2.87, 3.42, 3.45, 3.45, 4.12, 4.12, 3.94, 3.94, 3.97, 3.49, 3.52, 3.52, 3.52, 3.35, 3.35, 3.35, 3.35, 3.35, 3.35, 2.86, 2.86, 2.86, 2.86, 3.56, 3.37, 3.37, 3.6, 4.05, 3.83, 4.08, 3.84, 4.1, 3.45, 3.72, 3.47, 3.84, 4.12, 4.12, 4.75, 3.9, 4.03, 4.83, 5.59, 5.59, 4.96, 4.71, 5.51, 6.1, 7.23, 9.42, 11.08, 10.12, 8.65, 8.27, 9.4, 10.05, 9.42, 8.5, 4.4, -0.65, -3.83, -3.83, -3.83]}]